Wetterdaten: Montag, 04.02.2013
Datum Zeit Temp. Aussen +5cm Feuchte Auss BlattFeu 1 Luftdruck Regen Sonnenschein UV Solar Windben
04.02.2013 00:00 5,2 C 4,0 C 99 % 15 lf 1010,4 hPa 0,0 l/m 0 min 0,0 UV-I 0 W/m 23,2 km/h (4 Bft)
04.02.2013 00:02 5,2 C 4,0 C 99 % 15 lf 1010,5 hPa 0,0 l/m 0 min 0,0 UV-I 0 W/m 41,2 km/h (6 Bft)
04.02.2013 00:06 5,2 C 4,0 C 99 % 15 lf 1010,4 hPa 0,0 l/m 0 min 0,0 UV-I 0 W/m 12,9 km/h (3 Bft)
04.02.2013 00:08 5,2 C 4,0 C 99 % 15 lf 1010,5 hPa 0,0 l/m 0 min 0,0 UV-I 0 W/m 23,2 km/h (4 Bft)
04.02.2013 00:10 5,2 C 4,0 C 99 % 15 lf 1010,4 hPa 0,0 l/m 0 min 0,0 UV-I 0 W/m 12,9 km/h (3 Bft)
04.02.2013 00:12 5,2 C 4,0 C 99 % 15 lf 1010,6 hPa 0,0 l/m 0 min 0,0 UV-I 0 W/m 10,3 km/h (2 Bft)
04.02.2013 00:14 5,2 C 4,0 C 99 % 15 lf 1010,6 hPa 0,0 l/m 0 min 0,0 UV-I 0 W/m 18,0 km/h (3 Bft)
04.02.2013 00:16 5,2 C 4,0 C 99 % 15 lf 1010,5 hPa 0,0 l/m 0 min 0,0 UV-I 0 W/m 28,3 km/h (4 Bft)
04.02.2013 00:18 5,2 C 4,0 C 99 % 15 lf 1010,5 hPa 0,0 l/m 0 min 0,0 UV-I 0 W/m 20,6 km/h (4 Bft)
04.02.2013 00:20 5,2 C 4,0 C 99 % 15 lf 1010,5 hPa 0,0 l/m 0 min 0,0 UV-I 0 W/m 28,3 km/h (4 Bft)
04.02.2013 00:22 5,3 C 4,0 C 99 % 15 lf 1010,5 hPa 0,0 l/m 0 min 0,0 UV-I 0 W/m 25,7 km/h (4 Bft)
04.02.2013 00:24 5,3 C 4,0 C 99 % 15 lf 1010,6 hPa 0,0 l/m 0 min 0,0 UV-I 0 W/m 18,0 km/h (3 Bft)
04.02.2013 00:26 5,3 C 4,0 C 99 % 15 lf 1010,5 hPa 0,0 l/m 0 min 0,0 UV-I 0 W/m 15,4 km/h (3 Bft)
04.02.2013 00:28 5,3 C 4,0 C 99 % 15 lf 1010,6 hPa 0,0 l/m 0 min 0,0 UV-I 0 W/m 25,7 km/h (4 Bft)
04.02.2013 00:30 5,3 C 4,0 C 99 % 15 lf 1010,6 hPa 0,0 l/m 0 min 0,0 UV-I 0 W/m 25,7 km/h (4 Bft)
04.02.2013 00:32 5,3 C 4,0 C 99 % 15 lf 1010,5 hPa 0,0 l/m 0 min 0,0 UV-I 0 W/m 20,6 km/h (4 Bft)
04.02.2013 00:34 5,3 C 4,0 C 99 % 15 lf 1010,5 hPa 0,0 l/m 0 min 0,0 UV-I 0 W/m 20,6 km/h (4 Bft)
04.02.2013 00:36 5,3 C 4,0 C 99 % 15 lf 1010,4 hPa 0,0 l/m 0 min 0,0 UV-I 0 W/m 23,2 km/h (4 Bft)
04.02.2013 00:38 5,3 C 4,0 C 99 % 15 lf 1010,5 hPa 0,0 l/m 0 min 0,0 UV-I 0 W/m 18,0 km/h (3 Bft)
04.02.2013 00:40 5,3 C 4,0 C 99 % 15 lf 1010,6 hPa 0,0 l/m 0 min 0,0 UV-I 0 W/m 28,3 km/h (4 Bft)
04.02.2013 00:42 5,3 C 4,0 C 99 % 15 lf 1010,6 hPa 0,0 l/m 0 min 0,0 UV-I 0 W/m 12,9 km/h (3 Bft)
04.02.2013 00:44 5,4 C 4,0 C 99 % 15 lf 1010,5 hPa 0,0 l/m 0 min 0,0 UV-I 0 W/m 20,6 km/h (4 Bft)
04.02.2013 00:46 5,4 C 4,0 C 99 % 15 lf 1010,5 hPa 0,0 l/m 0 min 0,0 UV-I 0 W/m 20,6 km/h (4 Bft)
04.02.2013 00:48 5,4 C 4,0 C 99 % 15 lf 1010,6 hPa 0,0 l/m 0 min 0,0 UV-I 0 W/m 20,6 km/h (4 Bft)
04.02.2013 00:50 5,4 C 4,0 C 99 % 15 lf 1010,6 hPa 0,0 l/m 0 min 0,0 UV-I 0 W/m 15,4 km/h (3 Bft)
04.02.2013 00:52 5,4 C 4,0 C 99 % 15 lf 1010,5 hPa 0,0 l/m 0 min 0,0 UV-I 0 W/m 20,6 km/h (4 Bft)
04.02.2013 00:54 5,4 C 4,0 C 99 % 15 lf 1010,6 hPa 0,0 l/m 0 min 0,0 UV-I 0 W/m 18,0 km/h (3 Bft)
04.02.2013 00:56 5,4 C 4,0 C 99 % 15 lf 1010,6 hPa 0,0 l/m 0 min 0,0 UV-I 0 W/m 12,9 km/h (3 Bft)
04.02.2013 00:58 5,4 C 4,0 C 99 % 15 lf 1010,6 hPa 0,0 l/m 0 min 0,0 UV-I 0 W/m 25,7 km/h (4 Bft)
04.02.2013 01:00 5,4 C 4,0 C 99 % 15 lf 1010,5 hPa 0,0 l/m 0 min 0,0 UV-I 0 W/m 20,6 km/h (4 Bft)
04.02.2013 01:02 5,4 C 4,0 C 99 % 15 lf 1010,5 hPa 0,0 l/m 0 min 0,0 UV-I 0 W/m 15,4 km/h (3 Bft)
04.02.2013 01:06 5,4 C 4,0 C 99 % 15 lf 1010,5 hPa 0,0 l/m 0 min 0,0 UV-I 0 W/m 15,4 km/h (3 Bft)
04.02.2013 01:08 5,4 C 4,0 C 99 % 15 lf 1010,5 hPa 0,0 l/m 0 min 0,0 UV-I 0 W/m 18,0 km/h (3 Bft)
04.02.2013 01:10 5,4 C 4,0 C 99 % 15 lf 1010,4 hPa 0,0 l/m 0 min 0,0 UV-I 0 W/m 10,3 km/h (2 Bft)
04.02.2013 01:12 5,4 C 4,0 C 99 % 15 lf 1010,4 hPa 0,0 l/m 0 min 0,0 UV-I 0 W/m 23,2 km/h (4 Bft)
04.02.2013 01:14 5,5 C 4,0 C 99 % 15 lf 1010,4 hPa 0,0 l/m 0 min 0,0 UV-I 0 W/m 12,9 km/h (3 Bft)
04.02.2013 01:16 5,5 C 4,0 C 99 % 15 lf 1010,3 hPa 0,0 l/m 0 min 0,0 UV-I 0 W/m 12,9 km/h (3 Bft)
04.02.2013 01:18 5,5 C 4,0 C 99 % 15 lf 1010,4 hPa 0,0 l/m 0 min 0,0 UV-I 0 W/m 12,9 km/h (3 Bft)
04.02.2013 01:20 5,5 C 4,0 C 99 % 15 lf 1010,3 hPa 0,0 l/m 0 min 0,0 UV-I 0 W/m 18,0 km/h (3 Bft)
04.02.2013 01:22 5,5 C 4,0 C 99 % 15 lf 1010,3 hPa 0,0 l/m 0 min 0,0 UV-I 0 W/m 20,6 km/h (4 Bft)
04.02.2013 01:24 5,6 C 4,0 C 99 % 15 lf 1010,2 hPa 0,0 l/m 0 min 0,0 UV-I 0 W/m 10,3 km/h (2 Bft)
04.02.2013 01:26 5,5 C 4,0 C 99 % 15 lf 1010,1 hPa 0,0 l/m 0 min 0,0 UV-I 0 W/m 10,3 km/h (2 Bft)
04.02.2013 01:28 5,5 C 4,0 C 99 % 15 lf 1010,1 hPa 0,0 l/m 0 min 0,0 UV-I 0 W/m 20,6 km/h (4 Bft)
04.02.2013 01:30 5,5 C 4,0 C 99 % 15 lf 1010,0 hPa 0,0 l/m 0 min 0,0 UV-I 0 W/m 15,4 km/h (3 Bft)
04.02.2013 01:32 5,5 C 4,0 C 99 % 15 lf 1010,1 hPa 0,0 l/m 0 min 0,0 UV-I 0 W/m 18,0 km/h (3 Bft)
04.02.2013 01:34 5,6 C 4,6 C 99 % 15 lf 1010,1 hPa 0,0 l/m 0 min 0,0 UV-I 0 W/m 18,0 km/h (3 Bft)
04.02.2013 01:36 5,6 C 4,6 C 99 % 15 lf 1010,0 hPa 0,0 l/m 0 min 0,0 UV-I 0 W/m 15,4 km/h (3 Bft)
04.02.2013 01:38 5,6 C 4,6 C 99 % 15 lf 1010,1 hPa 0,0 l/m 0 min 0,0 UV-I 0 W/m 10,3 km/h (2 Bft)
04.02.2013 01:40 5,6 C 4,6 C 99 % 15 lf 1010,0 hPa 0,0 l/m 0 min 0,0 UV-I 0 W/m 12,9 km/h (3 Bft)
04.02.2013 01:42 5,6 C 4,6 C 99 % 15 lf 1010,1 hPa 0,0 l/m 0 min 0,0 UV-I 0 W/m 15,4 km/h (3 Bft)
04.02.2013 01:44 5,6 C 4,6 C 99 % 15 lf 1010,0 hPa 0,0 l/m 0 min 0,0 UV-I 0 W/m 28,3 km/h (4 Bft)
04.02.2013 01:46 5,6 C 4,6 C 99 % 15 lf 1010,0 hPa 0,0 l/m 0 min 0,0 UV-I 0 W/m 15,4 km/h (3 Bft)
04.02.2013 01:48 5,6 C 4,6 C 99 % 15 lf 1009,9 hPa 0,0 l/m 0 min 0,0 UV-I 0 W/m 18,0 km/h (3 Bft)
04.02.2013 01:50 5,6 C 4,6 C 99 % 15 lf 1009,9 hPa 0,0 l/m 0 min 0,0 UV-I 0 W/m 10,3 km/h (2 Bft)
04.02.2013 01:52 5,6 C 4,6 C 99 % 15 lf 1009,9 hPa 0,0 l/m 0 min 0,0 UV-I 0 W/m 12,9 km/h (3 Bft)
04.02.2013 01:54 5,7 C 4,6 C 99 % 15 lf 1009,9 hPa 0,0 l/m 0 min 0,0 UV-I 0 W/m 10,3 km/h (2 Bft)
04.02.2013 01:56 5,7 C 4,6 C 99 % 15 lf 1009,9 hPa 0,0 l/m 0 min 0,0 UV-I 0 W/m 15,4 km/h (3 Bft)
04.02.2013 01:58 5,7 C 4,6 C 99 % 15 lf 1009,9 hPa 0,0 l/m 0 min 0,0 UV-I 0 W/m 15,4 km/h (3 Bft)
04.02.2013 02:00 5,7 C 4,6 C 99 % 15 lf 1010,0 hPa 0,0 l/m 0 min 0,0 UV-I 0 W/m 12,9 km/h (3 Bft)
04.02.2013 02:02 5,7 C 4,6 C 99 % 15 lf 1009,9 hPa 0,0 l/m 0 min 0,0 UV-I 0 W/m 20,6 km/h (4 Bft)
04.02.2013 02:04 5,7 C 4,6 C 99 % 15 lf 1009,9 hPa 0,0 l/m 0 min 0,0 UV-I 0 W/m 18,0 km/h (3 Bft)
04.02.2013 02:08 5,7 C 4,6 C 100 % 15 lf 1009,9 hPa 0,0 l/m 0 min 0,0 UV-I 0 W/m 20,6 km/h (4 Bft)
04.02.2013 02:10 5,7 C 4,6 C 100 % 15 lf 1009,9 hPa 0,0 l/m 0 min 0,0 UV-I 0 W/m 10,3 km/h (2 Bft)
04.02.2013 02:12 5,7 C 4,6 C 100 % 15 lf 1009,9 hPa 0,0 l/m 0 min 0,0 UV-I 0 W/m 15,4 km/h (3 Bft)
04.02.2013 02:14 5,8 C 4,6 C 100 % 15 lf 1010,0 hPa 0,0 l/m 0 min 0,0 UV-I 0 W/m 18,0 km/h (3 Bft)
04.02.2013 02:16 5,8 C 4,6 C 100 % 15 lf 1010,0 hPa 0,0 l/m 0 min 0,0 UV-I 0 W/m 18,0 km/h (3 Bft)
04.02.2013 02:18 5,8 C 4,6 C 100 % 15 lf 1009,8 hPa 0,0 l/m 0 min 0,0 UV-I 0 W/m 10,3 km/h (2 Bft)
04.02.2013 02:20 5,8 C 4,6 C 100 % 15 lf 1009,9 hPa 0,0 l/m 0 min 0,0 UV-I 0 W/m 15,4 km/h (3 Bft)
04.02.2013 02:22 5,8 C 4,6 C 100 % 15 lf 1010,0 hPa 0,0 l/m 0 min 0,0 UV-I 0 W/m 12,9 km/h (3 Bft)
04.02.2013 02:24 5,8 C 4,6 C 100 % 15 lf 1010,0 hPa 0,0 l/m 0 min 0,0 UV-I 0 W/m 15,4 km/h (3 Bft)
04.02.2013 02:26 5,8 C 4,6 C 100 % 15 lf 1010,0 hPa 0,0 l/m 0 min 0,0 UV-I 0 W/m 12,9 km/h (3 Bft)
04.02.2013 02:28 5,8 C 4,6 C 100 % 15 lf 1010,0 hPa 0,0 l/m 0 min 0,0 UV-I 0 W/m 18,0 km/h (3 Bft)
04.02.2013 02:30 5,8 C 4,6 C 100 % 15 lf 1009,9 hPa 0,0 l/m 0 min 0,0 UV-I 0 W/m 23,2 km/h (4 Bft)
04.02.2013 02:32 5,9 C 4,6 C 100 % 15 lf 1009,8 hPa 0,0 l/m 0 min 0,0 UV-I 0 W/m 15,4 km/h (3 Bft)
04.02.2013 02:34 5,9 C 4,6 C 100 % 15 lf 1009,6 hPa 0,0 l/m 0 min 0,0 UV-I 0 W/m 20,6 km/h (4 Bft)
04.02.2013 02:36 5,9 C 4,6 C 100 % 15 lf 1009,7 hPa 0,0 l/m 0 min 0,0 UV-I 0 W/m 12,9 km/h (3 Bft)
04.02.2013 02:38 5,9 C 4,6 C 100 % 15 lf 1009,7 hPa 0,0 l/m 0 min 0,0 UV-I 0 W/m 18,0 km/h (3 Bft)
04.02.2013 02:40 5,9 C 4,6 C 100 % 15 lf 1009,7 hPa 0,0 l/m 0 min 0,0 UV-I 0 W/m 15,4 km/h (3 Bft)
04.02.2013 02:42 5,9 C 4,6 C 100 % 15 lf 1009,7 hPa 0,0 l/m 0 min 0,0 UV-I 0 W/m 12,9 km/h (3 Bft)
04.02.2013 02:44 5,9 C 4,6 C 100 % 15 lf 1009,5 hPa 0,0 l/m 0 min 0,0 UV-I 0 W/m 15,4 km/h (3 Bft)
04.02.2013 02:46 6,0 C 4,6 C 100 % 15 lf 1009,3 hPa 0,0 l/m 0 min 0,0 UV-I 0 W/m 18,0 km/h (3 Bft)
04.02.2013 02:48 6,0 C 4,6 C 100 % 15 lf 1009,3 hPa 0,0 l/m 0 min 0,0 UV-I 0 W/m 12,9 km/h (3 Bft)
04.02.2013 02:50 6,0 C 4,6 C 100 % 15 lf 1009,3 hPa 0,0 l/m 0 min 0,0 UV-I 0 W/m 12,9 km/h (3 Bft)
04.02.2013 02:52 6,0 C 4,6 C 100 % 15 lf 1009,4 hPa 0,0 l/m 0 min 0,0 UV-I 0 W/m 12,9 km/h (3 Bft)
04.02.2013 02:54 6,0 C 4,6 C 100 % 15 lf 1009,4 hPa 0,0 l/m 0 min 0,0 UV-I 0 W/m 7,7 km/h (2 Bft)
04.02.2013 02:56 6,0 C 4,6 C 100 % 15 lf 1009,4 hPa 0,0 l/m 0 min 0,0 UV-I 0 W/m 15,4 km/h (3 Bft)
04.02.2013 02:58 6,1 C 5,1 C 100 % 15 lf 1009,4 hPa 0,0 l/m 0 min 0,0 UV-I 0 W/m 20,6 km/h (4 Bft)
04.02.2013 03:00 6,1 C 5,1 C 100 % 15 lf 1009,4 hPa 0,0 l/m 0 min 0,0 UV-I 0 W/m 15,4 km/h (3 Bft)
04.02.2013 03:02 6,1 C 5,1 C 100 % 15 lf 1009,4 hPa 0,0 l/m 0 min 0,0 UV-I 0 W/m 18,0 km/h (3 Bft)
04.02.2013 03:05 6,1 C 5,1 C 100 % 15 lf 1009,3 hPa 0,0 l/m 0 min 0,0 UV-I 0 W/m 12,9 km/h (3 Bft)
04.02.2013 03:06 6,1 C 5,1 C 100 % 15 lf 1009,3 hPa 0,0 l/m 0 min 0,0 UV-I 0 W/m 23,2 km/h (4 Bft)
04.02.2013 03:08 6,2 C 5,1 C 100 % 15 lf 1009,3 hPa 0,0 l/m 0 min 0,0 UV-I 0 W/m 23,2 km/h (4 Bft)
04.02.2013 03:10 6,2 C 5,1 C 100 % 15 lf 1009,4 hPa 0,0 l/m 0 min 0,0 UV-I 0 W/m 15,4 km/h (3 Bft)
04.02.2013 03:12 6,2 C 5,1 C 100 % 15 lf 1009,3 hPa 0,0 l/m 0 min 0,0 UV-I 0 W/m 7,7 km/h (2 Bft)
04.02.2013 03:14 6,2 C 5,1 C 100 % 15 lf 1009,3 hPa 0,2 l/m 0 min 0,0 UV-I 0 W/m 12,9 km/h (3 Bft)
04.02.2013 03:16 6,2 C 5,1 C 100 % 15 lf 1009,3 hPa 0,2 l/m 0 min 0,0 UV-I 0 W/m 12,9 km/h (3 Bft)
04.02.2013 03:18 6,2 C 5,1 C 100 % 15 lf 1009,3 hPa 0,0 l/m 0 min 0,0 UV-I 0 W/m 10,3 km/h (2 Bft)
04.02.2013 03:20 6,2 C 5,1 C 100 % 15 lf 1009,2 hPa 0,2 l/m 0 min 0,0 UV-I 0 W/m 10,3 km/h (2 Bft)
04.02.2013 03:22 6,2 C 5,1 C 100 % 15 lf 1009,2 hPa 0,0 l/m 0 min 0,0 UV-I 0 W/m 12,9 km/h (3 Bft)
04.02.2013 03:24 6,2 C 5,1 C 100 % 15 lf 1009,2 hPa 0,2 l/m 0 min 0,0 UV-I 0 W/m 12,9 km/h (3 Bft)
04.02.2013 03:26 6,2 C 5,1 C 100 % 15 lf 1009,0 hPa 0,0 l/m 0 min 0,0 UV-I 0 W/m 5,1 km/h (1 Bft)
04.02.2013 03:28 6,2 C 5,1 C 100 % 15 lf 1009,0 hPa 0,0 l/m 0 min 0,0 UV-I 0 W/m 20,6 km/h (4 Bft)
04.02.2013 03:30 6,2 C 5,1 C 100 % 15 lf 1009,1 hPa 0,0 l/m 0 min 0,0 UV-I 0 W/m 15,4 km/h (3 Bft)
04.02.2013 03:32 6,2 C 5,1 C 100 % 15 lf 1009,0 hPa 0,2 l/m 0 min 0,0 UV-I 0 W/m 18,0 km/h (3 Bft)
04.02.2013 03:34 6,2 C 5,1 C 100 % 15 lf 1009,0 hPa 0,0 l/m 0 min 0,0 UV-I 0 W/m 10,3 km/h (2 Bft)
04.02.2013 03:36 6,2 C 5,1 C 100 % 15 lf 1009,1 hPa 0,0 l/m 0 min 0,0 UV-I 0 W/m 18,0 km/h (3 Bft)
04.02.2013 03:38 6,2 C 5,1 C 100 % 15 lf 1008,9 hPa 0,0 l/m 0 min 0,0 UV-I 0 W/m 12,9 km/h (3 Bft)
04.02.2013 03:40 6,2 C 5,1 C 100 % 15 lf 1008,8 hPa 0,0 l/m 0 min 0,0 UV-I 0 W/m 7,7 km/h (2 Bft)
04.02.2013 03:42 6,2 C 5,1 C 100 % 15 lf 1009,0 hPa 0,0 l/m 0 min 0,0 UV-I 0 W/m 15,4 km/h (3 Bft)
04.02.2013 03:44 6,2 C 5,1 C 100 % 15 lf 1009,0 hPa 0,0 l/m 0 min 0,0 UV-I 0 W/m 18,0 km/h (3 Bft)
04.02.2013 03:46 6,2 C 5,1 C 100 % 15 lf 1008,8 hPa 0,0 l/m 0 min 0,0 UV-I 0 W/m 18,0 km/h (3 Bft)
04.02.2013 03:48 6,2 C 5,1 C 100 % 15 lf 1008,7 hPa 0,0 l/m 0 min 0,0 UV-I 0 W/m 10,3 km/h (2 Bft)
04.02.2013 03:50 6,2 C 5,1 C 100 % 15 lf 1008,7 hPa 0,0 l/m 0 min 0,0 UV-I 0 W/m 15,4 km/h (3 Bft)
04.02.2013 03:52 6,3 C 5,1 C 100 % 15 lf 1008,7 hPa 0,2 l/m 0 min 0,0 UV-I 0 W/m 7,7 km/h (2 Bft)
04.02.2013 03:54 6,3 C 5,1 C 100 % 15 lf 1008,6 hPa 0,0 l/m 0 min 0,0 UV-I 0 W/m 12,9 km/h (3 Bft)
04.02.2013 03:56 6,2 C 5,1 C 100 % 15 lf 1008,6 hPa 0,0 l/m 0 min 0,0 UV-I 0 W/m 12,9 km/h (3 Bft)
04.02.2013 03:58 6,2 C 5,1 C 100 % 15 lf 1008,8 hPa 0,0 l/m 0 min 0,0 UV-I 0 W/m 10,3 km/h (2 Bft)
04.02.2013 04:00 6,2 C 5,1 C 100 % 15 lf 1008,8 hPa 0,0 l/m 0 min 0,0 UV-I 0 W/m 18,0 km/h (3 Bft)
04.02.2013 04:02 6,2 C 5,1 C 100 % 15 lf 1008,8 hPa 0,0 l/m 0 min 0,0 UV-I 0 W/m 15,4 km/h (3 Bft)
04.02.2013 04:06 6,2 C 5,1 C 100 % 15 lf 1008,7 hPa 0,0 l/m 0 min 0,0 UV-I 0 W/m 15,4 km/h (3 Bft)
04.02.2013 04:08 6,2 C 5,1 C 100 % 15 lf 1008,7 hPa 0,2 l/m 0 min 0,0 UV-I 0 W/m 10,3 km/h (2 Bft)
04.02.2013 04:10 6,2 C 5,1 C 100 % 15 lf 1008,7 hPa 0,0 l/m 0 min 0,0 UV-I 0 W/m 15,4 km/h (3 Bft)
04.02.2013 04:12 6,2 C 5,1 C 100 % 15 lf 1008,7 hPa 0,0 l/m 0 min 0,0 UV-I 0 W/m 20,6 km/h (4 Bft)
04.02.2013 04:14 6,3 C 5,1 C 100 % 15 lf 1008,7 hPa 0,0 l/m 0 min 0,0 UV-I 0 W/m 25,7 km/h (4 Bft)
04.02.2013 04:16 6,2 C 5,1 C 100 % 15 lf 1008,6 hPa 0,0 l/m 0 min 0,0 UV-I 0 W/m 7,7 km/h (2 Bft)
04.02.2013 04:18 6,2 C 5,1 C 100 % 15 lf 1008,7 hPa 0,0 l/m 0 min 0,0 UV-I 0 W/m 10,3 km/h (2 Bft)
04.02.2013 04:20 6,2 C 5,1 C 100 % 15 lf 1008,6 hPa 0,0 l/m 0 min 0,0 UV-I 0 W/m 12,9 km/h (3 Bft)
04.02.2013 04:22 6,2 C 5,1 C 100 % 15 lf 1008,5 hPa 0,0 l/m 0 min 0,0 UV-I 0 W/m 5,1 km/h (1 Bft)
04.02.2013 04:24 6,2 C 5,1 C 100 % 15 lf 1008,5 hPa 0,0 l/m 0 min 0,0 UV-I 0 W/m 20,6 km/h (4 Bft)
04.02.2013 04:26 6,3 C 5,1 C 100 % 15 lf 1008,5 hPa 0,2 l/m 0 min 0,0 UV-I 0 W/m 12,9 km/h (3 Bft)
04.02.2013 04:28 6,3 C 5,1 C 100 % 15 lf 1008,5 hPa 0,0 l/m 0 min 0,0 UV-I 0 W/m 12,9 km/h (3 Bft)
04.02.2013 04:30 6,3 C 5,1 C 100 % 15 lf 1008,6 hPa 0,0 l/m 0 min 0,0 UV-I 0 W/m 15,4 km/h (3 Bft)
04.02.2013 04:32 6,3 C 5,1 C 100 % 15 lf 1008,4 hPa 0,0 l/m 0 min 0,0 UV-I 0 W/m 12,9 km/h (3 Bft)
04.02.2013 04:34 6,3 C 5,1 C 100 % 15 lf 1008,4 hPa 0,0 l/m 0 min 0,0 UV-I 0 W/m 10,3 km/h (2 Bft)
04.02.2013 04:36 6,3 C 5,1 C 100 % 15 lf 1008,4 hPa 0,0 l/m 0 min 0,0 UV-I 0 W/m 12,9 km/h (3 Bft)
04.02.2013 04:38 6,3 C 5,1 C 100 % 15 lf 1008,4 hPa 0,0 l/m 0 min 0,0 UV-I 0 W/m 7,7 km/h (2 Bft)
04.02.2013 04:40 6,3 C 5,1 C 100 % 15 lf 1008,3 hPa 0,0 l/m 0 min 0,0 UV-I 0 W/m 12,9 km/h (3 Bft)
04.02.2013 04:42 6,3 C 5,1 C 100 % 15 lf 1008,3 hPa 0,0 l/m 0 min 0,0 UV-I 0 W/m 18,0 km/h (3 Bft)
04.02.2013 04:44 6,3 C 5,1 C 100 % 15 lf 1008,3 hPa 0,0 l/m 0 min 0,0 UV-I 0 W/m 12,9 km/h (3 Bft)
04.02.2013 04:46 6,3 C 5,1 C 100 % 15 lf 1008,3 hPa 0,0 l/m 0 min 0,0 UV-I 0 W/m 23,2 km/h (4 Bft)
04.02.2013 04:48 6,4 C 5,1 C 100 % 15 lf 1008,3 hPa 0,0 l/m 0 min 0,0 UV-I 0 W/m 18,0 km/h (3 Bft)
04.02.2013 04:50 6,4 C 5,1 C 100 % 15 lf 1008,3 hPa 0,0 l/m 0 min 0,0 UV-I 0 W/m 15,4 km/h (3 Bft)
04.02.2013 04:52 6,4 C 5,1 C 100 % 15 lf 1008,4 hPa 0,0 l/m 0 min 0,0 UV-I 0 W/m 12,9 km/h (3 Bft)
04.02.2013 04:54 6,4 C 5,1 C 100 % 15 lf 1008,2 hPa 0,0 l/m 0 min 0,0 UV-I 0 W/m 20,6 km/h (4 Bft)
04.02.2013 04:56 6,4 C 5,1 C 100 % 15 lf 1008,1 hPa 0,0 l/m 0 min 0,0 UV-I 0 W/m 15,4 km/h (3 Bft)
04.02.2013 04:58 6,4 C 5,1 C 100 % 15 lf 1008,2 hPa 0,0 l/m 0 min 0,0 UV-I 0 W/m 12,9 km/h (3 Bft)
04.02.2013 05:00 6,5 C 5,1 C 100 % 15 lf 1008,2 hPa 0,0 l/m 0 min 0,0 UV-I 0 W/m 12,9 km/h (3 Bft)
04.02.2013 05:02 6,5 C 5,1 C 100 % 15 lf 1008,4 hPa 0,0 l/m 0 min 0,0 UV-I 0 W/m 25,7 km/h (4 Bft)
04.02.2013 05:04 6,5 C 5,1 C 100 % 15 lf 1008,3 hPa 0,0 l/m 0 min 0,0 UV-I 0 W/m 23,2 km/h (4 Bft)
04.02.2013 05:08 6,6 C 5,1 C 100 % 15 lf 1008,1 hPa 0,0 l/m 0 min 0,0 UV-I 0 W/m 18,0 km/h (3 Bft)
04.02.2013 05:10 6,6 C 5,1 C 100 % 15 lf 1008,2 hPa 0,0 l/m 0 min 0,0 UV-I 0 W/m 12,9 km/h (3 Bft)
04.02.2013 05:12 6,6 C 5,1 C 100 % 15 lf 1008,2 hPa 0,0 l/m 0 min 0,0 UV-I 0 W/m 23,2 km/h (4 Bft)
04.02.2013 05:14 6,6 C 5,1 C 100 % 15 lf 1008,1 hPa 0,0 l/m 0 min 0,0 UV-I 0 W/m 18,0 km/h (3 Bft)
04.02.2013 05:16 6,6 C 5,1 C 100 % 15 lf 1008,2 hPa 0,0 l/m 0 min 0,0 UV-I 0 W/m 18,0 km/h (3 Bft)
04.02.2013 05:18 6,6 C 5,1 C 100 % 15 lf 1008,2 hPa 0,0 l/m 0 min 0,0 UV-I 0 W/m 25,7 km/h (4 Bft)
04.02.2013 05:20 6,6 C 5,1 C 100 % 15 lf 1008,3 hPa 0,0 l/m 0 min 0,0 UV-I 0 W/m 23,2 km/h (4 Bft)
04.02.2013 05:22 6,6 C 5,1 C 100 % 15 lf 1008,3 hPa 0,0 l/m 0 min 0,0 UV-I 0 W/m 18,0 km/h (3 Bft)
04.02.2013 05:24 6,6 C 5,1 C 100 % 15 lf 1008,1 hPa 0,0 l/m 0 min 0,0 UV-I 0 W/m 20,6 km/h (4 Bft)
04.02.2013 05:26 6,6 C 5,1 C 100 % 15 lf 1008,0 hPa 0,0 l/m 0 min 0,0 UV-I 0 W/m 20,6 km/h (4 Bft)
04.02.2013 05:28 6,6 C 5,1 C 100 % 15 lf 1008,1 hPa 0,0 l/m 0 min 0,0 UV-I 0 W/m 15,4 km/h (3 Bft)
04.02.2013 05:30 6,6 C 5,1 C 100 % 15 lf 1008,1 hPa 0,0 l/m 0 min 0,0 UV-I 0 W/m 25,7 km/h (4 Bft)
04.02.2013 05:32 6,6 C 5,7 C 100 % 15 lf 1008,0 hPa 0,0 l/m 0 min 0,0 UV-I 0 W/m 18,0 km/h (3 Bft)
04.02.2013 05:34 6,6 C 5,7 C 100 % 15 lf 1008,1 hPa 0,0 l/m 0 min 0,0 UV-I 0 W/m 12,9 km/h (3 Bft)
04.02.2013 05:36 6,7 C 5,7 C 100 % 15 lf 1008,3 hPa 0,0 l/m 0 min 0,0 UV-I 0 W/m 23,2 km/h (4 Bft)
04.02.2013 05:38 6,7 C 5,7 C 100 % 15 lf 1008,3 hPa 0,0 l/m 0 min 0,0 UV-I 0 W/m 15,4 km/h (3 Bft)
04.02.2013 05:40 6,7 C 5,7 C 100 % 15 lf 1008,2 hPa 0,0 l/m 0 min 0,0 UV-I 0 W/m 15,4 km/h (3 Bft)
04.02.2013 05:42 6,7 C 5,7 C 100 % 15 lf 1008,1 hPa 0,0 l/m 0 min 0,0 UV-I 0 W/m 20,6 km/h (4 Bft)
04.02.2013 05:44 6,7 C 5,7 C 100 % 15 lf 1008,0 hPa 0,0 l/m 0 min 0,0 UV-I 0 W/m 25,7 km/h (4 Bft)
04.02.2013 05:46 6,7 C 5,7 C 100 % 15 lf 1007,9 hPa 0,0 l/m 0 min 0,0 UV-I 0 W/m 18,0 km/h (3 Bft)
04.02.2013 05:48 6,7 C 5,7 C 100 % 15 lf 1007,9 hPa 0,0 l/m 0 min 0,0 UV-I 0 W/m 18,0 km/h (3 Bft)
04.02.2013 05:50 6,7 C 5,7 C 100 % 15 lf 1007,8 hPa 0,0 l/m 0 min 0,0 UV-I 0 W/m 12,9 km/h (3 Bft)
04.02.2013 05:52 6,7 C 5,7 C 100 % 15 lf 1007,8 hPa 0,0 l/m 0 min 0,0 UV-I 0 W/m 20,6 km/h (4 Bft)
04.02.2013 05:54 6,7 C 5,7 C 100 % 15 lf 1007,8 hPa 0,0 l/m 0 min 0,0 UV-I 0 W/m 20,6 km/h (4 Bft)
04.02.2013 05:56 6,7 C 5,7 C 100 % 15 lf 1007,6 hPa 0,0 l/m 0 min 0,0 UV-I 0 W/m 20,6 km/h (4 Bft)
04.02.2013 05:58 6,7 C 5,7 C 100 % 15 lf 1007,6 hPa 0,0 l/m 0 min 0,0 UV-I 0 W/m 12,9 km/h (3 Bft)
04.02.2013 06:00 6,7 C 5,7 C 100 % 15 lf 1007,6 hPa 0,0 l/m 0 min 0,0 UV-I 0 W/m 12,9 km/h (3 Bft)
04.02.2013 06:02 6,7 C 5,7 C 100 % 15 lf 1007,6 hPa 0,0 l/m 0 min 0,0 UV-I 0 W/m 18,0 km/h (3 Bft)
04.02.2013 06:06 6,7 C 5,7 C 100 % 15 lf 1007,7 hPa 0,0 l/m 0 min 0,0 UV-I 0 W/m 20,6 km/h (4 Bft)
04.02.2013 06:08 6,8 C 5,7 C 100 % 15 lf 1007,5 hPa 0,0 l/m 0 min 0,0 UV-I 0 W/m 12,9 km/h (3 Bft)
04.02.2013 06:10 6,8 C 5,7 C 100 % 15 lf 1007,8 hPa 0,0 l/m 0 min 0,0 UV-I 0 W/m 18,0 km/h (3 Bft)
04.02.2013 06:12 6,8 C 5,7 C 100 % 15 lf 1007,8 hPa 0,0 l/m 0 min 0,0 UV-I 0 W/m 12,9 km/h (3 Bft)
04.02.2013 06:14 6,8 C 5,7 C 100 % 15 lf 1007,7 hPa 0,0 l/m 0 min 0,0 UV-I 0 W/m 20,6 km/h (4 Bft)
04.02.2013 06:16 6,8 C 5,7 C 100 % 15 lf 1007,8 hPa 0,0 l/m 0 min 0,0 UV-I 0 W/m 18,0 km/h (3 Bft)
04.02.2013 06:18 6,8 C 5,7 C 100 % 15 lf 1007,7 hPa 0,0 l/m 0 min 0,0 UV-I 0 W/m 18,0 km/h (3 Bft)
04.02.2013 06:20 6,8 C 5,7 C 100 % 15 lf 1007,7 hPa 0,0 l/m 0 min 0,0 UV-I 0 W/m 20,6 km/h (4 Bft)
04.02.2013 06:22 6,8 C 5,7 C 100 % 15 lf 1008,0 hPa 0,0 l/m 0 min 0,0 UV-I 0 W/m 20,6 km/h (4 Bft)
04.02.2013 06:24 6,9 C 5,7 C 100 % 15 lf 1008,0 hPa 0,0 l/m 0 min 0,0 UV-I 0 W/m 18,0 km/h (3 Bft)
04.02.2013 06:26 6,9 C 5,7 C 100 % 14 lf 1007,9 hPa 0,0 l/m 0 min 0,0 UV-I 0 W/m 15,4 km/h (3 Bft)
04.02.2013 06:28 6,9 C 5,7 C 100 % 14 lf 1007,9 hPa 0,0 l/m 0 min 0,0 UV-I 0 W/m 20,6 km/h (4 Bft)
04.02.2013 06:30 6,9 C 5,7 C 100 % 14 lf 1007,8 hPa 0,0 l/m 0 min 0,0 UV-I 0 W/m 20,6 km/h (4 Bft)
04.02.2013 06:32 6,9 C 5,7 C 100 % 14 lf 1007,9 hPa 0,0 l/m 0 min 0,0 UV-I 0 W/m 18,0 km/h (3 Bft)
04.02.2013 06:34 6,9 C 5,7 C 100 % 14 lf 1008,0 hPa 0,0 l/m 0 min 0,0 UV-I 0 W/m 20,6 km/h (4 Bft)
04.02.2013 06:36 7,0 C 5,7 C 100 % 14 lf 1007,8 hPa 0,0 l/m 0 min 0,0 UV-I 0 W/m 20,6 km/h (4 Bft)
04.02.2013 06:38 7,0 C 5,7 C 100 % 14 lf 1007,8 hPa 0,0 l/m 0 min 0,0 UV-I 0 W/m 28,3 km/h (4 Bft)
04.02.2013 06:40 7,1 C 5,7 C 100 % 14 lf 1007,7 hPa 0,0 l/m 0 min 0,0 UV-I 0 W/m 28,3 km/h (4 Bft)
04.02.2013 06:42 7,1 C 5,7 C 100 % 13 lf 1007,7 hPa 0,0 l/m 0 min 0,0 UV-I 0 W/m 15,4 km/h (3 Bft)
04.02.2013 06:44 7,1 C 5,7 C 100 % 13 lf 1007,8 hPa 0,0 l/m 0 min 0,0 UV-I 0 W/m 15,4 km/h (3 Bft)
04.02.2013 06:46 7,1 C 5,7 C 100 % 13 lf 1007,7 hPa 0,0 l/m 0 min 0,0 UV-I 0 W/m 12,9 km/h (3 Bft)
04.02.2013 06:48 7,1 C 5,7 C 100 % 13 lf 1007,7 hPa 0,0 l/m 0 min 0,0 UV-I 0 W/m 12,9 km/h (3 Bft)
04.02.2013 06:50 7,1 C 5,7 C 100 % 13 lf 1007,6 hPa 0,0 l/m 0 min 0,0 UV-I 0 W/m 18,0 km/h (3 Bft)
04.02.2013 06:52 7,1 C 5,7 C 100 % 13 lf 1007,7 hPa 0,0 l/m 0 min 0,0 UV-I 0 W/m 12,9 km/h (3 Bft)
04.02.2013 06:54 7,1 C 5,7 C 100 % 13 lf 1007,7 hPa 0,0 l/m 0 min 0,0 UV-I 0 W/m 10,3 km/h (2 Bft)
04.02.2013 06:56 7,1 C 5,7 C 100 % 13 lf 1007,7 hPa 0,0 l/m 0 min 0,0 UV-I 0 W/m 23,2 km/h (4 Bft)
04.02.2013 06:58 7,1 C 5,7 C 100 % 13 lf 1007,8 hPa 0,0 l/m 0 min 0,0 UV-I 0 W/m 15,4 km/h (3 Bft)
04.02.2013 07:00 7,2 C 5,7 C 100 % 13 lf 1007,8 hPa 0,0 l/m 0 min 0,0 UV-I 0 W/m 18,0 km/h (3 Bft)
04.02.2013 07:02 7,2 C 5,7 C 100 % 12 lf 1007,8 hPa 0,0 l/m 0 min 0,0 UV-I 0 W/m 12,9 km/h (3 Bft)
04.02.2013 07:06 7,2 C 5,7 C 100 % 12 lf 1007,7 hPa 0,0 l/m 0 min 0,0 UV-I 0 W/m 15,4 km/h (3 Bft)
04.02.2013 07:08 7,2 C 5,7 C 100 % 11 lf 1007,6 hPa 0,0 l/m 0 min 0,0 UV-I 0 W/m 28,3 km/h (4 Bft)
04.02.2013 07:10 7,2 C 5,7 C 100 % 11 lf 1007,7 hPa 0,0 l/m 0 min 0,0 UV-I 0 W/m 10,3 km/h (2 Bft)
04.02.2013 07:12 7,2 C 5,7 C 100 % 10 lf 1007,7 hPa 0,0 l/m 0 min 0,0 UV-I 0 W/m 25,7 km/h (4 Bft)
04.02.2013 07:14 7,2 C 5,7 C 100 % 11 lf 1007,7 hPa 0,0 l/m 0 min 0,0 UV-I 0 W/m 20,6 km/h (4 Bft)
04.02.2013 07:16 7,2 C 5,7 C 100 % 10 lf 1007,6 hPa 0,0 l/m 0 min 0,0 UV-I 0 W/m 25,7 km/h (4 Bft)
04.02.2013 07:18 7,2 C 5,7 C 100 % 10 lf 1007,5 hPa 0,0 l/m 0 min 0,0 UV-I 0 W/m 15,4 km/h (3 Bft)
04.02.2013 07:20 7,2 C 5,7 C 100 % 9 lf 1007,6 hPa 0,0 l/m 0 min 0,0 UV-I 0 W/m 15,4 km/h (3 Bft)
04.02.2013 07:22 7,2 C 5,7 C 100 % 8 lf 1007,7 hPa 0,0 l/m 0 min 0,0 UV-I 0 W/m 18,0 km/h (3 Bft)
04.02.2013 07:24 7,2 C 5,7 C 100 % 7 lf 1007,7 hPa 0,0 l/m 0 min 0,0 UV-I 0 W/m 18,0 km/h (3 Bft)
04.02.2013 07:26 7,2 C 5,7 C 100 % 7 lf 1007,7 hPa 0,0 l/m 0 min 0,0 UV-I 0 W/m 15,4 km/h (3 Bft)
04.02.2013 07:28 7,2 C 5,7 C 100 % 8 lf 1007,7 hPa 0,0 l/m 0 min 0,0 UV-I 0 W/m 15,4 km/h (3 Bft)
04.02.2013 07:30 7,2 C 5,7 C 100 % 8 lf 1007,7 hPa 0,0 l/m 0 min 0,0 UV-I 0 W/m 15,4 km/h (3 Bft)
04.02.2013 07:32 7,3 C 5,7 C 100 % 8 lf 1007,7 hPa 0,0 l/m 0 min 0,0 UV-I 0 W/m 18,0 km/h (3 Bft)
04.02.2013 07:34 7,3 C 5,7 C 100 % 8 lf 1007,7 hPa 0,0 l/m 0 min 0,0 UV-I 0 W/m 7,7 km/h (2 Bft)
04.02.2013 07:36 7,3 C 5,7 C 100 % 7 lf 1007,6 hPa 0,0 l/m 0 min 0,0 UV-I 0 W/m 12,9 km/h (3 Bft)
04.02.2013 07:38 7,3 C 5,7 C 100 % 7 lf 1007,7 hPa 0,0 l/m 0 min 0,0 UV-I 0 W/m 20,6 km/h (4 Bft)
04.02.2013 07:40 7,3 C 5,7 C 100 % 7 lf 1007,8 hPa 0,2 l/m 0 min 0,0 UV-I 0 W/m 23,2 km/h (4 Bft)
04.02.2013 07:42 7,3 C 6,2 C 100 % 7 lf 1007,8 hPa 0,0 l/m 0 min 0,0 UV-I 0 W/m 18,0 km/h (3 Bft)
04.02.2013 07:44 7,3 C 6,2 C 100 % 9 lf 1007,8 hPa 0,0 l/m 0 min 0,0 UV-I 0 W/m 20,6 km/h (4 Bft)
04.02.2013 07:46 7,3 C 5,7 C 100 % 15 lf 1007,8 hPa 0,0 l/m 0 min 0,0 UV-I 0 W/m 18,0 km/h (3 Bft)
04.02.2013 07:48 7,3 C 5,7 C 100 % 15 lf 1007,8 hPa 0,0 l/m 0 min 0,0 UV-I 0 W/m 7,7 km/h (2 Bft)
04.02.2013 07:50 7,3 C 5,7 C 100 % 15 lf 1007,9 hPa 0,0 l/m 0 min 0,0 UV-I 0 W/m 10,3 km/h (2 Bft)
04.02.2013 07:52 7,3 C 5,7 C 100 % 15 lf 1007,9 hPa 0,0 l/m 0 min 0,0 UV-I 0 W/m 10,3 km/h (2 Bft)
04.02.2013 07:54 7,3 C 6,2 C 100 % 15 lf 1007,9 hPa 0,0 l/m 0 min 0,0 UV-I 0 W/m 12,9 km/h (3 Bft)
04.02.2013 07:56 7,3 C 6,2 C 100 % 15 lf 1007,9 hPa 0,0 l/m 0 min 0,0 UV-I 0 W/m 18,0 km/h (3 Bft)
04.02.2013 07:58 7,4 C 6,2 C 100 % 15 lf 1007,9 hPa 0,0 l/m 0 min 0,0 UV-I 0 W/m 10,3 km/h (2 Bft)
04.02.2013 08:00 7,4 C 6,2 C 100 % 15 lf 1008,0 hPa 0,0 l/m 0 min 0,0 UV-I 0 W/m 18,0 km/h (3 Bft)
04.02.2013 08:02 7,4 C 6,2 C 100 % 15 lf 1007,9 hPa 0,0 l/m 0 min 0,0 UV-I 0 W/m 7,7 km/h (2 Bft)
04.02.2013 08:06 7,4 C 6,2 C 100 % 15 lf 1007,9 hPa 0,0 l/m 0 min 0,0 UV-I 0 W/m 20,6 km/h (4 Bft)
04.02.2013 08:08 7,4 C 6,2 C 100 % 15 lf 1007,9 hPa 0,0 l/m 0 min 0,0 UV-I 0 W/m 20,6 km/h (4 Bft)
04.02.2013 08:10 7,4 C 6,2 C 100 % 15 lf 1008,0 hPa 0,0 l/m 0 min 0,0 UV-I 0 W/m 18,0 km/h (3 Bft)
04.02.2013 08:12 7,4 C 6,2 C 100 % 15 lf 1007,9 hPa 0,0 l/m 0 min 0,0 UV-I 0 W/m 12,9 km/h (3 Bft)
04.02.2013 08:14 7,4 C 6,2 C 100 % 15 lf 1007,9 hPa 0,0 l/m 0 min 0,0 UV-I 0 W/m 10,3 km/h (2 Bft)
04.02.2013 08:16 7,4 C 6,2 C 100 % 15 lf 1007,9 hPa 0,0 l/m 0 min 0,0 UV-I 0 W/m 7,7 km/h (2 Bft)
04.02.2013 08:18 7,5 C 6,2 C 100 % 15 lf 1008,0 hPa 0,0 l/m 0 min 0,0 UV-I 0 W/m 15,4 km/h (3 Bft)
04.02.2013 08:20 7,5 C 6,2 C 100 % 15 lf 1007,9 hPa 0,0 l/m 0 min 0,0 UV-I 0 W/m 10,3 km/h (2 Bft)
04.02.2013 08:22 7,5 C 6,2 C 100 % 15 lf 1007,9 hPa 0,0 l/m 0 min 0,0 UV-I 0 W/m 18,0 km/h (3 Bft)
04.02.2013 08:24 7,5 C 6,2 C 100 % 15 lf 1008,0 hPa 0,0 l/m 0 min 0,0 UV-I 0 W/m 23,2 km/h (4 Bft)
04.02.2013 08:26 7,5 C 6,2 C 100 % 15 lf 1008,1 hPa 0,0 l/m 0 min 0,0 UV-I 0 W/m 12,9 km/h (3 Bft)
04.02.2013 08:28 7,5 C 6,2 C 100 % 15 lf 1008,1 hPa 0,0 l/m 0 min 0,0 UV-I 0 W/m 10,3 km/h (2 Bft)
04.02.2013 08:30 7,6 C 6,2 C 100 % 15 lf 1008,0 hPa 0,0 l/m 0 min 0,0 UV-I 0 W/m 12,9 km/h (3 Bft)
04.02.2013 08:32 7,6 C 6,2 C 100 % 15 lf 1008,0 hPa 0,0 l/m 0 min 0,0 UV-I 0 W/m 10,3 km/h (2 Bft)
04.02.2013 08:34 7,6 C 6,2 C 100 % 15 lf 1008,0 hPa 0,0 l/m 0 min 0,0 UV-I 0 W/m 7,7 km/h (2 Bft)
04.02.2013 08:36 7,6 C 6,2 C 100 % 15 lf 1008,0 hPa 0,0 l/m 0 min 0,0 UV-I 0 W/m 12,9 km/h (3 Bft)
04.02.2013 08:38 7,6 C 6,2 C 100 % 15 lf 1008,0 hPa 0,0 l/m 0 min 0,0 UV-I 5 W/m 10,3 km/h (2 Bft)
04.02.2013 08:40 7,6 C 6,2 C 100 % 15 lf 1008,0 hPa 0,0 l/m 0 min 0,0 UV-I 5 W/m 12,9 km/h (3 Bft)
04.02.2013 08:42 7,6 C 6,2 C 99 % 15 lf 1008,0 hPa 0,0 l/m 0 min 0,0 UV-I 7 W/m 23,2 km/h (4 Bft)
04.02.2013 08:44 7,6 C 6,2 C 99 % 15 lf 1008,0 hPa 0,0 l/m 0 min 0,0 UV-I 7 W/m 15,4 km/h (3 Bft)
04.02.2013 08:46 7,6 C 6,2 C 99 % 15 lf 1008,1 hPa 0,0 l/m 0 min 0,0 UV-I 7 W/m 18,0 km/h (3 Bft)
04.02.2013 08:48 7,6 C 6,2 C 99 % 15 lf 1008,0 hPa 0,0 l/m 0 min 0,0 UV-I 7 W/m 7,7 km/h (2 Bft)
04.02.2013 08:50 7,6 C 6,2 C 99 % 15 lf 1008,0 hPa 0,0 l/m 0 min 0,0 UV-I 7 W/m 7,7 km/h (2 Bft)
04.02.2013 08:52 7,7 C 6,2 C 99 % 15 lf 1008,0 hPa 0,0 l/m 0 min 0,0 UV-I 11 W/m 12,9 km/h (3 Bft)
04.02.2013 08:54 7,7 C 6,2 C 99 % 15 lf 1008,0 hPa 0,0 l/m 0 min 0,0 UV-I 9 W/m 23,2 km/h (4 Bft)
04.02.2013 08:56 7,7 C 6,2 C 99 % 15 lf 1008,1 hPa 0,0 l/m 0 min 0,0 UV-I 5 W/m 15,4 km/h (3 Bft)
04.02.2013 08:58 7,7 C 6,2 C 99 % 15 lf 1008,0 hPa 0,0 l/m 0 min 0,0 UV-I 5 W/m 20,6 km/h (4 Bft)
04.02.2013 09:00 7,7 C 6,2 C 99 % 15 lf 1008,0 hPa 0,0 l/m 0 min 0,0 UV-I 7 W/m 20,6 km/h (4 Bft)
04.02.2013 09:02 7,7 C 6,2 C 99 % 15 lf 1008,1 hPa 0,0 l/m 0 min 0,0 UV-I 7 W/m 20,6 km/h (4 Bft)
04.02.2013 09:06 7,8 C 6,2 C 99 % 15 lf 1008,0 hPa 0,0 l/m 0 min 0,0 UV-I 12 W/m 15,4 km/h (3 Bft)
04.02.2013 09:08 7,8 C 6,2 C 99 % 15 lf 1008,0 hPa 0,0 l/m 0 min 0,0 UV-I 14 W/m 15,4 km/h (3 Bft)
04.02.2013 09:10 7,8 C 6,2 C 99 % 15 lf 1008,0 hPa 0,0 l/m 0 min 0,0 UV-I 16 W/m 18,0 km/h (3 Bft)
04.02.2013 09:12 7,8 C 6,2 C 99 % 15 lf 1008,0 hPa 0,0 l/m 0 min 0,0 UV-I 23 W/m 23,2 km/h (4 Bft)
04.02.2013 09:14 7,8 C 6,2 C 99 % 15 lf 1008,0 hPa 0,0 l/m 0 min 0,0 UV-I 23 W/m 15,4 km/h (3 Bft)
04.02.2013 09:16 7,8 C 6,2 C 99 % 15 lf 1008,0 hPa 0,0 l/m 0 min 0,0 UV-I 26 W/m 18,0 km/h (3 Bft)
04.02.2013 09:18 7,8 C 6,2 C 99 % 15 lf 1008,0 hPa 0,0 l/m 0 min 0,0 UV-I 21 W/m 15,4 km/h (3 Bft)
04.02.2013 09:20 7,8 C 6,2 C 99 % 15 lf 1008,0 hPa 0,0 l/m 0 min 0,0 UV-I 21 W/m 18,0 km/h (3 Bft)
04.02.2013 09:22 7,8 C 6,2 C 99 % 15 lf 1008,0 hPa 0,0 l/m 0 min 0,0 UV-I 21 W/m 15,4 km/h (3 Bft)
04.02.2013 09:24 7,8 C 6,2 C 99 % 15 lf 1008,0 hPa 0,0 l/m 0 min 0,0 UV-I 21 W/m 18,0 km/h (3 Bft)
04.02.2013 09:26 7,9 C 6,2 C 99 % 15 lf 1008,0 hPa 0,0 l/m 0 min 0,0 UV-I 23 W/m 18,0 km/h (3 Bft)
04.02.2013 09:28 7,9 C 6,2 C 99 % 15 lf 1007,9 hPa 0,0 l/m 0 min 0,0 UV-I 25 W/m 12,9 km/h (3 Bft)
04.02.2013 09:30 7,9 C 6,2 C 99 % 15 lf 1007,9 hPa 0,0 l/m 0 min 0,0 UV-I 25 W/m 15,4 km/h (3 Bft)
04.02.2013 09:32 7,9 C 6,2 C 99 % 15 lf 1007,9 hPa 0,0 l/m 0 min 0,0 UV-I 26 W/m 18,0 km/h (3 Bft)
04.02.2013 09:34 7,9 C 6,2 C 99 % 15 lf 1008,0 hPa 0,0 l/m 0 min 0,0 UV-I 23 W/m 12,9 km/h (3 Bft)
04.02.2013 09:36 7,9 C 6,2 C 99 % 15 lf 1007,9 hPa 0,0 l/m 0 min 0,0 UV-I 21 W/m 12,9 km/h (3 Bft)
04.02.2013 09:38 7,9 C 6,2 C 99 % 15 lf 1007,9 hPa 0,0 l/m 0 min 0,0 UV-I 21 W/m 12,9 km/h (3 Bft)
04.02.2013 09:40 7,9 C 6,2 C 99 % 15 lf 1008,0 hPa 0,0 l/m 0 min 0,0 UV-I 18 W/m 28,3 km/h (4 Bft)
04.02.2013 09:42 7,9 C 6,2 C 99 % 15 lf 1008,0 hPa 0,0 l/m 0 min 0,0 UV-I 19 W/m 12,9 km/h (3 Bft)
04.02.2013 09:44 7,9 C 6,8 C 99 % 15 lf 1008,0 hPa 0,0 l/m 0 min 0,0 UV-I 23 W/m 15,4 km/h (3 Bft)
04.02.2013 09:46 7,9 C 6,8 C 99 % 15 lf 1007,9 hPa 0,0 l/m 0 min 0,0 UV-I 32 W/m 15,4 km/h (3 Bft)
04.02.2013 09:48 7,9 C 6,8 C 99 % 15 lf 1007,9 hPa 0,2 l/m 0 min 0,0 UV-I 28 W/m 10,3 km/h (2 Bft)
04.02.2013 09:50 7,9 C 6,8 C 99 % 15 lf 1008,0 hPa 0,0 l/m 0 min 0,0 UV-I 21 W/m 18,0 km/h (3 Bft)
04.02.2013 09:52 8,0 C 6,8 C 99 % 15 lf 1007,9 hPa 0,0 l/m 0 min 0,0 UV-I 23 W/m 15,4 km/h (3 Bft)
04.02.2013 09:54 8,0 C 6,8 C 99 % 15 lf 1008,0 hPa 0,0 l/m 0 min 0,0 UV-I 25 W/m 18,0 km/h (3 Bft)
04.02.2013 09:56 8,0 C 6,8 C 99 % 15 lf 1008,0 hPa 0,0 l/m 0 min 0,0 UV-I 23 W/m 10,3 km/h (2 Bft)
04.02.2013 09:58 8,0 C 6,8 C 99 % 15 lf 1008,0 hPa 0,0 l/m 0 min 0,0 UV-I 28 W/m 15,4 km/h (3 Bft)
04.02.2013 10:00 8,0 C 6,8 C 99 % 15 lf 1008,0 hPa 0,0 l/m 0 min 0,0 UV-I 21 W/m 12,9 km/h (3 Bft)
04.02.2013 10:02 8,0 C 6,8 C 99 % 15 lf 1008,0 hPa 0,0 l/m 0 min 0,0 UV-I 21 W/m 10,3 km/h (2 Bft)
04.02.2013 10:06 8,0 C 6,8 C 99 % 15 lf 1008,0 hPa 0,0 l/m 0 min 0,0 UV-I 26 W/m 18,0 km/h (3 Bft)
04.02.2013 10:08 8,0 C 6,8 C 99 % 15 lf 1008,1 hPa 0,0 l/m 0 min 0,0 UV-I 33 W/m 18,0 km/h (3 Bft)
04.02.2013 10:10 8,0 C 6,8 C 99 % 15 lf 1008,0 hPa 0,0 l/m 0 min 0,0 UV-I 32 W/m 20,6 km/h (4 Bft)
04.02.2013 10:12 8,0 C 6,8 C 99 % 15 lf 1008,0 hPa 0,2 l/m 0 min 0,0 UV-I 26 W/m 15,4 km/h (3 Bft)
04.02.2013 10:14 8,0 C 6,8 C 99 % 14 lf 1008,0 hPa 0,0 l/m 0 min 0,0 UV-I 26 W/m 12,9 km/h (3 Bft)
04.02.2013 10:16 8,0 C 6,8 C 99 % 14 lf 1008,0 hPa 0,0 l/m 0 min 0,0 UV-I 30 W/m 15,4 km/h (3 Bft)
04.02.2013 10:18 8,1 C 6,8 C 99 % 14 lf 1008,0 hPa 0,0 l/m 0 min 0,0 UV-I 32 W/m 20,6 km/h (4 Bft)
04.02.2013 10:20 8,1 C 6,8 C 99 % 14 lf 1008,0 hPa 0,0 l/m 0 min 0,0 UV-I 32 W/m 18,0 km/h (3 Bft)
04.02.2013 10:22 8,1 C 6,8 C 99 % 14 lf 1008,0 hPa 0,2 l/m 0 min 0,0 UV-I 32 W/m 23,2 km/h (4 Bft)
04.02.2013 10:24 8,1 C 6,8 C 99 % 14 lf 1008,1 hPa 0,0 l/m 0 min 0,0 UV-I 33 W/m 18,0 km/h (3 Bft)
04.02.2013 10:26 8,1 C 6,8 C 99 % 14 lf 1008,1 hPa 0,0 l/m 0 min 0,0 UV-I 28 W/m 10,3 km/h (2 Bft)
04.02.2013 10:28 8,1 C 6,8 C 99 % 14 lf 1008,1 hPa 0,0 l/m 0 min 0,0 UV-I 33 W/m 10,3 km/h (2 Bft)
04.02.2013 10:30 8,1 C 6,8 C 99 % 14 lf 1008,2 hPa 0,0 l/m 0 min 0,0 UV-I 30 W/m 20,6 km/h (4 Bft)
04.02.2013 10:32 8,1 C 6,8 C 99 % 14 lf 1008,1 hPa 0,0 l/m 0 min 0,0 UV-I 28 W/m 10,3 km/h (2 Bft)
04.02.2013 10:34 8,1 C 6,8 C 99 % 14 lf 1008,1 hPa 0,0 l/m 0 min 0,0 UV-I 25 W/m 18,0 km/h (3 Bft)
04.02.2013 10:36 8,1 C 6,8 C 100 % 15 lf 1008,1 hPa 0,0 l/m 0 min 0,0 UV-I 19 W/m 20,6 km/h (4 Bft)
04.02.2013 10:38 8,1 C 6,8 C 99 % 14 lf 1008,1 hPa 0,0 l/m 0 min 0,0 UV-I 21 W/m 20,6 km/h (4 Bft)
04.02.2013 10:40 8,1 C 6,8 C 99 % 15 lf 1008,1 hPa 0,0 l/m 0 min 0,0 UV-I 26 W/m 18,0 km/h (3 Bft)
04.02.2013 10:42 8,1 C 6,8 C 99 % 15 lf 1008,2 hPa 0,0 l/m 0 min 0,0 UV-I 28 W/m 10,3 km/h (2 Bft)
04.02.2013 10:44 8,1 C 6,8 C 100 % 15 lf 1008,2 hPa 0,0 l/m 0 min 0,0 UV-I 21 W/m 20,6 km/h (4 Bft)
04.02.2013 10:46 8,1 C 6,8 C 100 % 15 lf 1008,2 hPa 0,2 l/m 0 min 0,0 UV-I 32 W/m 5,1 km/h (1 Bft)
04.02.2013 10:48 8,1 C 6,8 C 100 % 15 lf 1008,4 hPa 0,0 l/m 0 min 0,0 UV-I 37 W/m 18,0 km/h (3 Bft)
04.02.2013 10:50 8,1 C 6,8 C 100 % 15 lf 1008,3 hPa 0,0 l/m 0 min 0,0 UV-I 25 W/m 12,9 km/h (3 Bft)
04.02.2013 10:52 8,1 C 6,8 C 100 % 15 lf 1008,4 hPa 0,0 l/m 0 min 0,0 UV-I 33 W/m 12,9 km/h (3 Bft)
04.02.2013 10:54 8,1 C 6,8 C 100 % 15 lf 1008,3 hPa 0,0 l/m 0 min 0,0 UV-I 46 W/m 20,6 km/h (4 Bft)
04.02.2013 10:56 8,1 C 6,8 C 100 % 15 lf 1008,4 hPa 0,0 l/m 0 min 0,0 UV-I 37 W/m 10,3 km/h (2 Bft)
04.02.2013 10:58 8,1 C 6,8 C 100 % 15 lf 1008,4 hPa 0,0 l/m 0 min 0,0 UV-I 32 W/m 12,9 km/h (3 Bft)
04.02.2013 11:00 8,1 C 6,8 C 100 % 15 lf 1008,3 hPa 0,0 l/m 0 min 0,0 UV-I 35 W/m 15,4 km/h (3 Bft)
04.02.2013 11:02 8,1 C 6,8 C 100 % 15 lf 1008,4 hPa 0,0 l/m 0 min 0,0 UV-I 30 W/m 10,3 km/h (2 Bft)
04.02.2013 11:06 8,1 C 6,8 C 100 % 14 lf 1008,6 hPa 0,2 l/m 0 min 0,0 UV-I 30 W/m 18,0 km/h (3 Bft)
04.02.2013 11:08 8,2 C 6,8 C 100 % 14 lf 1008,6 hPa 0,0 l/m 0 min 0,0 UV-I 19 W/m 10,3 km/h (2 Bft)
04.02.2013 11:10 8,2 C 6,8 C 100 % 14 lf 1008,6 hPa 0,0 l/m 0 min 0,0 UV-I 14 W/m 20,6 km/h (4 Bft)
04.02.2013 11:12 8,2 C 6,8 C 100 % 14 lf 1008,7 hPa 0,0 l/m 0 min 0,0 UV-I 16 W/m 15,4 km/h (3 Bft)
04.02.2013 11:14 8,2 C 6,8 C 100 % 15 lf 1008,7 hPa 0,0 l/m 0 min 0,0 UV-I 16 W/m 18,0 km/h (3 Bft)
04.02.2013 11:16 8,1 C 6,8 C 100 % 15 lf 1008,6 hPa 0,0 l/m 0 min 0,0 UV-I 19 W/m 7,7 km/h (2 Bft)
04.02.2013 11:18 8,2 C 6,8 C 100 % 15 lf 1008,6 hPa 0,0 l/m 0 min 0,0 UV-I 21 W/m 12,9 km/h (3 Bft)
04.02.2013 11:20 8,2 C 6,8 C 100 % 15 lf 1008,6 hPa 0,0 l/m 0 min 0,0 UV-I 16 W/m 12,9 km/h (3 Bft)
04.02.2013 11:22 8,2 C 6,8 C 100 % 15 lf 1008,6 hPa 0,2 l/m 0 min 0,0 UV-I 21 W/m 7,7 km/h (2 Bft)
04.02.2013 11:24 8,2 C 6,8 C 100 % 15 lf 1008,7 hPa 0,0 l/m 0 min 0,0 UV-I 19 W/m 7,7 km/h (2 Bft)
04.02.2013 11:26 8,1 C 6,8 C 100 % 15 lf 1008,7 hPa 0,0 l/m 0 min 0,0 UV-I 14 W/m 7,7 km/h (2 Bft)
04.02.2013 11:28 8,2 C 6,8 C 100 % 15 lf 1008,7 hPa 0,0 l/m 0 min 0,0 UV-I 14 W/m 12,9 km/h (3 Bft)
04.02.2013 11:30 8,1 C 6,8 C 100 % 15 lf 1008,7 hPa 0,0 l/m 0 min 0,0 UV-I 16 W/m 15,4 km/h (3 Bft)
04.02.2013 11:32 8,1 C 6,8 C 100 % 15 lf 1008,7 hPa 0,2 l/m 0 min 0,0 UV-I 21 W/m 7,7 km/h (2 Bft)
04.02.2013 11:34 8,2 C 6,8 C 100 % 15 lf 1008,8 hPa 0,0 l/m 0 min 0,0 UV-I 18 W/m 10,3 km/h (2 Bft)
04.02.2013 11:36 8,2 C 6,8 C 100 % 15 lf 1008,8 hPa 0,0 l/m 0 min 0,0 UV-I 19 W/m 12,9 km/h (3 Bft)
04.02.2013 11:38 8,2 C 6,8 C 100 % 15 lf 1008,7 hPa 0,0 l/m 0 min 0,0 UV-I 18 W/m 7,7 km/h (2 Bft)
04.02.2013 11:40 8,2 C 6,8 C 100 % 15 lf 1008,7 hPa 0,0 l/m 0 min 0,0 UV-I 32 W/m 12,9 km/h (3 Bft)
04.02.2013 11:42 8,2 C 6,8 C 100 % 15 lf 1008,7 hPa 0,0 l/m 0 min 0,0 UV-I 33 W/m 7,7 km/h (2 Bft)
04.02.2013 11:44 8,2 C 6,8 C 100 % 15 lf 1008,7 hPa 0,0 l/m 0 min 0,0 UV-I 39 W/m 12,9 km/h (3 Bft)
04.02.2013 11:46 8,2 C 6,8 C 100 % 15 lf 1008,7 hPa 0,0 l/m 0 min 0,0 UV-I 32 W/m 15,4 km/h (3 Bft)
04.02.2013 11:48 8,2 C 6,8 C 100 % 15 lf 1008,7 hPa 0,0 l/m 0 min 0,0 UV-I 33 W/m 12,9 km/h (3 Bft)
04.02.2013 11:50 8,2 C 6,8 C 100 % 15 lf 1008,6 hPa 0,0 l/m 0 min 0,0 UV-I 39 W/m 15,4 km/h (3 Bft)
04.02.2013 11:52 8,2 C 6,8 C 100 % 15 lf 1008,6 hPa 0,0 l/m 0 min 0,0 UV-I 35 W/m 20,6 km/h (4 Bft)
04.02.2013 11:54 8,2 C 6,8 C 100 % 15 lf 1008,6 hPa 0,0 l/m 0 min 0,0 UV-I 33 W/m 25,7 km/h (4 Bft)
04.02.2013 11:56 8,2 C 6,8 C 100 % 15 lf 1008,7 hPa 0,0 l/m 0 min 0,0 UV-I 39 W/m 7,7 km/h (2 Bft)
04.02.2013 11:58 8,2 C 6,8 C 100 % 15 lf 1008,7 hPa 0,0 l/m 0 min 0,0 UV-I 46 W/m 10,3 km/h (2 Bft)
04.02.2013 12:00 8,3 C 7,3 C 100 % 15 lf 1008,6 hPa 0,0 l/m 0 min 0,0 UV-I 47 W/m 5,1 km/h (1 Bft)
04.02.2013 12:02 8,3 C 7,3 C 100 % 15 lf 1008,7 hPa 0,0 l/m 0 min 0,0 UV-I 51 W/m 15,4 km/h (3 Bft)
04.02.2013 12:05 8,3 C 7,3 C 100 % 15 lf 1008,6 hPa 0,0 l/m 0 min 0,0 UV-I 70 W/m 7,7 km/h (2 Bft)
04.02.2013 12:06 8,3 C 7,3 C 100 % 15 lf 1008,6 hPa 0,0 l/m 0 min 0,0 UV-I 83 W/m 15,4 km/h (3 Bft)
04.02.2013 12:08 8,3 C 7,3 C 100 % 15 lf 1008,6 hPa 0,0 l/m 0 min 0,0 UV-I 95 W/m 15,4 km/h (3 Bft)
04.02.2013 12:10 8,3 C 7,3 C 100 % 15 lf 1008,5 hPa 0,0 l/m 0 min 0,0 UV-I 84 W/m 7,7 km/h (2 Bft)
04.02.2013 12:12 8,4 C 7,3 C 100 % 15 lf 1008,5 hPa 0,0 l/m 0 min 0,0 UV-I 86 W/m 18,0 km/h (3 Bft)
04.02.2013 12:14 8,4 C 7,3 C 100 % 15 lf 1008,6 hPa 0,0 l/m 0 min 0,0 UV-I 58 W/m 15,4 km/h (3 Bft)
04.02.2013 12:16 8,4 C 7,3 C 100 % 15 lf 1008,5 hPa 0,0 l/m 0 min 0,0 UV-I 62 W/m 12,9 km/h (3 Bft)
04.02.2013 12:18 8,4 C 7,3 C 100 % 15 lf 1008,5 hPa 0,0 l/m 0 min 0,0 UV-I 39 W/m 18,0 km/h (3 Bft)
04.02.2013 12:20 8,4 C 7,3 C 100 % 15 lf 1008,5 hPa 0,0 l/m 0 min 0,0 UV-I 40 W/m 15,4 km/h (3 Bft)
04.02.2013 12:22 8,4 C 7,3 C 100 % 15 lf 1008,4 hPa 0,0 l/m 0 min 0,0 UV-I 30 W/m 18,0 km/h (3 Bft)
04.02.2013 12:24 8,4 C 7,3 C 100 % 15 lf 1008,5 hPa 0,0 l/m 0 min 0,0 UV-I 47 W/m 20,6 km/h (4 Bft)
04.02.2013 12:26 8,4 C 7,3 C 100 % 15 lf 1008,5 hPa 0,2 l/m 0 min 0,0 UV-I 35 W/m 20,6 km/h (4 Bft)
04.02.2013 12:28 8,4 C 7,3 C 100 % 15 lf 1008,5 hPa 0,0 l/m 0 min 0,0 UV-I 46 W/m 15,4 km/h (3 Bft)
04.02.2013 12:30 8,4 C 7,3 C 100 % 15 lf 1008,6 hPa 0,0 l/m 0 min 0,0 UV-I 53 W/m 20,6 km/h (4 Bft)
04.02.2013 12:32 8,4 C 7,3 C 100 % 15 lf 1008,6 hPa 0,0 l/m 0 min 0,0 UV-I 39 W/m 25,7 km/h (4 Bft)
04.02.2013 12:34 8,4 C 7,3 C 100 % 15 lf 1008,5 hPa 0,2 l/m 0 min 0,0 UV-I 44 W/m 23,2 km/h (4 Bft)
04.02.2013 12:36 8,4 C 7,3 C 100 % 15 lf 1008,6 hPa 0,0 l/m 0 min 0,0 UV-I 40 W/m 12,9 km/h (3 Bft)
04.02.2013 12:38 8,4 C 7,3 C 100 % 15 lf 1008,6 hPa 0,0 l/m 0 min 0,0 UV-I 39 W/m 12,9 km/h (3 Bft)
04.02.2013 12:40 8,4 C 7,3 C 100 % 15 lf 1008,5 hPa 0,0 l/m 0 min 0,0 UV-I 37 W/m 28,3 km/h (4 Bft)
04.02.2013 12:42 8,4 C 7,3 C 100 % 15 lf 1008,6 hPa 0,0 l/m 0 min 0,0 UV-I 44 W/m 25,7 km/h (4 Bft)
04.02.2013 12:44 8,4 C 7,3 C 100 % 15 lf 1008,7 hPa 0,0 l/m 0 min 0,0 UV-I 58 W/m 23,2 km/h (4 Bft)
04.02.2013 12:46 8,4 C 7,3 C 100 % 15 lf 1008,8 hPa 0,0 l/m 0 min 0,0 UV-I 72 W/m 18,0 km/h (3 Bft)
04.02.2013 12:48 8,4 C 7,3 C 100 % 15 lf 1008,7 hPa 0,0 l/m 0 min 0,0 UV-I 65 W/m 15,4 km/h (3 Bft)
04.02.2013 12:50 8,4 C 7,3 C 100 % 15 lf 1008,7 hPa 0,0 l/m 0 min 0,0 UV-I 56 W/m 18,0 km/h (3 Bft)
04.02.2013 12:52 8,4 C 7,3 C 100 % 15 lf 1008,7 hPa 0,0 l/m 0 min 0,0 UV-I 46 W/m 25,7 km/h (4 Bft)
04.02.2013 12:54 8,4 C 6,8 C 100 % 15 lf 1008,7 hPa 0,0 l/m 0 min 0,0 UV-I 58 W/m 30,9 km/h (5 Bft)
04.02.2013 12:56 8,4 C 7,3 C 99 % 15 lf 1008,9 hPa 0,0 l/m 0 min 0,0 UV-I 86 W/m 18,0 km/h (3 Bft)
04.02.2013 12:58 8,4 C 7,3 C 99 % 15 lf 1008,8 hPa 0,0 l/m 0 min 0,0 UV-I 130 W/m 36,0 km/h (5 Bft)
04.02.2013 13:00 8,4 C 7,3 C 99 % 15 lf 1008,8 hPa 0,0 l/m 0 min 0,0 UV-I 113 W/m 15,4 km/h (3 Bft)
04.02.2013 13:02 8,4 C 7,3 C 99 % 15 lf 1008,9 hPa 0,0 l/m 0 min 0,0 UV-I 128 W/m 18,0 km/h (3 Bft)
04.02.2013 13:06 8,4 C 7,3 C 99 % 14 lf 1008,9 hPa 0,0 l/m 0 min 0,0 UV-I 209 W/m 23,2 km/h (4 Bft)
04.02.2013 13:08 8,5 C 7,3 C 99 % 13 lf 1009,0 hPa 0,0 l/m 0 min 0,0 UV-I 167 W/m 23,2 km/h (4 Bft)
04.02.2013 13:10 8,6 C 7,3 C 99 % 11 lf 1008,9 hPa 0,0 l/m 0 min 0,0 UV-I 171 W/m 15,4 km/h (3 Bft)
04.02.2013 13:12 8,6 C 7,3 C 99 % 7 lf 1009,0 hPa 0,0 l/m 2 min 0,0 UV-I 385 W/m 23,2 km/h (4 Bft)
04.02.2013 13:14 8,7 C 7,3 C 99 % 2 lf 1009,1 hPa 0,0 l/m 2 min 0,0 UV-I 355 W/m 36,0 km/h (5 Bft)
04.02.2013 13:16 8,7 C 7,3 C 98 % 2 lf 1008,9 hPa 0,0 l/m 2 min 0,0 UV-I 353 W/m 18,0 km/h (3 Bft)
04.02.2013 13:18 8,7 C 7,3 C 98 % 1 lf 1008,9 hPa 0,0 l/m 2 min 0,0 UV-I 346 W/m 23,2 km/h (4 Bft)
04.02.2013 13:20 8,8 C 7,3 C 98 % 1 lf 1009,0 hPa 0,0 l/m 2 min 0,0 UV-I 367 W/m 12,9 km/h (3 Bft)
04.02.2013 13:22 8,8 C 7,3 C 97 % 1 lf 1009,0 hPa 0,0 l/m 2 min 0,0 UV-I 308 W/m 15,4 km/h (3 Bft)
04.02.2013 13:24 8,9 C 7,3 C 97 % 1 lf 1009,0 hPa 0,0 l/m 2 min 0,0 UV-I 274 W/m 20,6 km/h (4 Bft)
04.02.2013 13:26 8,9 C 7,3 C 96 % 1 lf 1009,1 hPa 0,0 l/m 2 min 0,0 UV-I 353 W/m 15,4 km/h (3 Bft)
04.02.2013 13:28 9,0 C 7,3 C 95 % 1 lf 1009,1 hPa 0,0 l/m 2 min 0,0 UV-I 371 W/m 23,2 km/h (4 Bft)
04.02.2013 13:30 9,1 C 7,3 C 94 % 1 lf 1009,2 hPa 0,0 l/m 2 min 0,0 UV-I 329 W/m 15,4 km/h (3 Bft)
04.02.2013 13:32 9,2 C 7,3 C 94 % 1 lf 1009,1 hPa 0,0 l/m 2 min 0,0 UV-I 315 W/m 20,6 km/h (4 Bft)
04.02.2013 13:34 9,3 C 7,3 C 93 % 1 lf 1009,0 hPa 0,0 l/m 2 min 0,0 UV-I 325 W/m 18,0 km/h (3 Bft)
04.02.2013 13:36 9,3 C 7,3 C 92 % 1 lf 1008,9 hPa 0,0 l/m 2 min 0,0 UV-I 325 W/m 18,0 km/h (3 Bft)
04.02.2013 13:38 9,3 C 6,8 C 89 % 1 lf 1009,0 hPa 0,0 l/m 0 min 0,0 UV-I 114 W/m 18,0 km/h (3 Bft)
04.02.2013 13:40 9,3 C 6,8 C 88 % 1 lf 1008,9 hPa 0,0 l/m 0 min 0,0 UV-I 114 W/m 18,0 km/h (3 Bft)
04.02.2013 13:42 9,3 C 6,8 C 86 % 0 lf 1008,9 hPa 0,0 l/m 0 min 0,0 UV-I 105 W/m 25,7 km/h (4 Bft)
04.02.2013 13:44 9,3 C 6,2 C 82 % 0 lf 1008,8 hPa 0,0 l/m 0 min 0,0 UV-I 98 W/m 25,7 km/h (4 Bft)
04.02.2013 13:46 9,3 C 6,2 C 82 % 0 lf 1008,8 hPa 0,0 l/m 0 min 0,0 UV-I 93 W/m 20,6 km/h (4 Bft)
04.02.2013 13:48 9,3 C 6,2 C 81 % 0 lf 1008,8 hPa 0,0 l/m 0 min 0,0 UV-I 84 W/m 10,3 km/h (2 Bft)
04.02.2013 13:50 9,3 C 6,2 C 81 % 0 lf 1008,9 hPa 0,0 l/m 0 min 0,0 UV-I 88 W/m 23,2 km/h (4 Bft)
04.02.2013 13:52 9,2 C 6,2 C 79 % 0 lf 1008,8 hPa 0,0 l/m 0 min 0,0 UV-I 93 W/m 28,3 km/h (4 Bft)
04.02.2013 13:54 9,2 C 5,7 C 77 % 0 lf 1008,8 hPa 0,0 l/m 0 min 0,0 UV-I 84 W/m 18,0 km/h (3 Bft)
04.02.2013 13:56 9,2 C 5,7 C 76 % 0 lf 1008,8 hPa 0,0 l/m 0 min 0,0 UV-I 77 W/m 23,2 km/h (4 Bft)
04.02.2013 13:58 9,2 C 5,7 C 77 % 0 lf 1008,9 hPa 0,0 l/m 0 min 0,0 UV-I 77 W/m 20,6 km/h (4 Bft)
04.02.2013 14:00 9,2 C 5,7 C 77 % 0 lf 1009,0 hPa 0,0 l/m 0 min 0,0 UV-I 86 W/m 10,3 km/h (2 Bft)
04.02.2013 14:02 9,2 C 6,2 C 77 % 0 lf 1008,9 hPa 0,0 l/m 0 min 0,0 UV-I 93 W/m 15,4 km/h (3 Bft)
04.02.2013 14:06 9,2 C 6,2 C 78 % 0 lf 1009,0 hPa 0,0 l/m 0 min 0,0 UV-I 100 W/m 12,9 km/h (3 Bft)
04.02.2013 14:08 9,1 C 6,2 C 78 % 0 lf 1009,0 hPa 0,0 l/m 0 min 0,0 UV-I 104 W/m 12,9 km/h (3 Bft)
04.02.2013 14:10 9,1 C 6,2 C 78 % 0 lf 1009,0 hPa 0,0 l/m 0 min 0,0 UV-I 111 W/m 7,7 km/h (2 Bft)
04.02.2013 14:12 9,1 C 6,2 C 78 % 0 lf 1009,0 hPa 0,0 l/m 0 min 0,0 UV-I 113 W/m 7,7 km/h (2 Bft)
04.02.2013 14:14 9,1 C 6,8 C 78 % 0 lf 1009,1 hPa 0,0 l/m 0 min 0,0 UV-I 123 W/m 5,1 km/h (1 Bft)
04.02.2013 14:16 9,2 C 6,8 C 78 % 0 lf 1009,1 hPa 0,0 l/m 0 min 0,0 UV-I 127 W/m 12,9 km/h (3 Bft)
04.02.2013 14:18 9,2 C 6,8 C 78 % 0 lf 1009,1 hPa 0,0 l/m 0 min 0,0 UV-I 134 W/m 5,1 km/h (1 Bft)
04.02.2013 14:20 9,2 C 6,8 C 78 % 0 lf 1009,1 hPa 0,0 l/m 0 min 0,0 UV-I 120 W/m 10,3 km/h (2 Bft)
04.02.2013 14:22 9,2 C 7,3 C 78 % 0 lf 1009,0 hPa 0,0 l/m 0 min 0,0 UV-I 109 W/m 10,3 km/h (2 Bft)
04.02.2013 14:24 9,2 C 7,3 C 77 % 0 lf 1009,1 hPa 0,0 l/m 0 min 0,0 UV-I 98 W/m 2,6 km/h (1 Bft)
04.02.2013 14:26 9,2 C 7,3 C 76 % 0 lf 1009,0 hPa 0,0 l/m 0 min 0,0 UV-I 93 W/m 10,3 km/h (2 Bft)
04.02.2013 14:28 9,2 C 7,3 C 76 % 0 lf 1009,0 hPa 0,0 l/m 0 min 0,0 UV-I 104 W/m 2,6 km/h (1 Bft)
04.02.2013 14:30 9,3 C 7,3 C 76 % 0 lf 1009,0 hPa 0,0 l/m 0 min 0,0 UV-I 104 W/m 38,6 km/h (5 Bft)
04.02.2013 14:32 9,3 C 7,3 C 76 % 0 lf 1009,1 hPa 0,0 l/m 0 min 0,0 UV-I 97 W/m 12,9 km/h (3 Bft)
04.02.2013 14:34 9,3 C 7,3 C 75 % 0 lf 1009,0 hPa 0,0 l/m 0 min 0,0 UV-I 105 W/m 5,1 km/h (1 Bft)
04.02.2013 14:36 9,3 C 7,9 C 75 % 0 lf 1008,9 hPa 0,0 l/m 0 min 0,0 UV-I 128 W/m 20,6 km/h (4 Bft)
04.02.2013 14:38 9,3 C 7,3 C 74 % 0 lf 1008,8 hPa 0,0 l/m 0 min 0,0 UV-I 105 W/m 12,9 km/h (3 Bft)
04.02.2013 14:40 9,3 C 7,9 C 74 % 0 lf 1008,7 hPa 0,0 l/m 0 min 0,0 UV-I 121 W/m 7,7 km/h (2 Bft)
04.02.2013 14:42 9,3 C 7,9 C 75 % 0 lf 1008,8 hPa 0,0 l/m 0 min 0,0 UV-I 98 W/m 7,7 km/h (2 Bft)
04.02.2013 14:44 9,3 C 7,9 C 75 % 0 lf 1008,9 hPa 0,0 l/m 0 min 0,0 UV-I 67 W/m 20,6 km/h (4 Bft)
04.02.2013 14:46 9,3 C 7,3 C 74 % 0 lf 1009,0 hPa 0,0 l/m 0 min 0,0 UV-I 54 W/m 18,0 km/h (3 Bft)
04.02.2013 14:48 9,3 C 7,3 C 75 % 0 lf 1008,9 hPa 0,0 l/m 0 min 0,0 UV-I 60 W/m 5,1 km/h (1 Bft)
04.02.2013 14:50 9,3 C 7,3 C 75 % 0 lf 1008,9 hPa 0,0 l/m 0 min 0,0 UV-I 67 W/m 10,3 km/h (2 Bft)
04.02.2013 14:52 9,3 C 7,3 C 75 % 0 lf 1009,0 hPa 0,0 l/m 0 min 0,0 UV-I 74 W/m 12,9 km/h (3 Bft)
04.02.2013 14:54 9,2 C 7,3 C 74 % 0 lf 1008,9 hPa 0,0 l/m 0 min 0,0 UV-I 76 W/m 15,4 km/h (3 Bft)
04.02.2013 14:56 9,2 C 7,3 C 74 % 0 lf 1008,9 hPa 0,0 l/m 0 min 0,0 UV-I 83 W/m 12,9 km/h (3 Bft)
04.02.2013 14:58 9,2 C 7,9 C 73 % 0 lf 1008,9 hPa 0,0 l/m 0 min 0,0 UV-I 86 W/m 28,3 km/h (4 Bft)
04.02.2013 15:00 9,2 C 7,9 C 73 % 0 lf 1008,9 hPa 0,0 l/m 0 min 0,0 UV-I 81 W/m 10,3 km/h (2 Bft)
04.02.2013 15:02 9,2 C 7,9 C 74 % 0 lf 1009,0 hPa 0,0 l/m 0 min 0,0 UV-I 88 W/m 20,6 km/h (4 Bft)
04.02.2013 15:06 9,2 C 7,9 C 73 % 0 lf 1008,9 hPa 0,0 l/m 0 min 0,0 UV-I 102 W/m 15,4 km/h (3 Bft)
04.02.2013 15:08 9,2 C 7,9 C 72 % 0 lf 1008,9 hPa 0,0 l/m 0 min 0,0 UV-I 102 W/m 12,9 km/h (3 Bft)
04.02.2013 15:10 9,2 C 7,9 C 73 % 0 lf 1009,0 hPa 0,0 l/m 0 min 0,0 UV-I 93 W/m 5,1 km/h (1 Bft)
04.02.2013 15:12 9,2 C 7,9 C 74 % 0 lf 1008,9 hPa 0,0 l/m 0 min 0,0 UV-I 79 W/m 7,7 km/h (2 Bft)
04.02.2013 15:14 9,2 C 7,9 C 74 % 0 lf 1009,0 hPa 0,0 l/m 0 min 0,0 UV-I 70 W/m 15,4 km/h (3 Bft)
04.02.2013 15:16 9,2 C 7,9 C 74 % 0 lf 1009,0 hPa 0,0 l/m 0 min 0,0 UV-I 58 W/m 7,7 km/h (2 Bft)
04.02.2013 15:18 9,2 C 7,9 C 75 % 0 lf 1009,0 hPa 0,0 l/m 0 min 0,0 UV-I 46 W/m 12,9 km/h (3 Bft)
04.02.2013 15:20 9,2 C 7,3 C 75 % 0 lf 1009,0 hPa 0,0 l/m 0 min 0,0 UV-I 37 W/m 10,3 km/h (2 Bft)
04.02.2013 15:22 9,2 C 7,3 C 76 % 0 lf 1009,0 hPa 0,0 l/m 0 min 0,0 UV-I 39 W/m 7,7 km/h (2 Bft)
04.02.2013 15:24 9,2 C 7,3 C 76 % 0 lf 1009,1 hPa 0,0 l/m 0 min 0,0 UV-I 32 W/m 5,1 km/h (1 Bft)
04.02.2013 15:26 9,2 C 7,3 C 78 % 0 lf 1009,1 hPa 0,0 l/m 0 min 0,0 UV-I 28 W/m 5,1 km/h (1 Bft)
04.02.2013 15:28 9,2 C 7,3 C 78 % 0 lf 1009,1 hPa 0,0 l/m 0 min 0,0 UV-I 26 W/m 12,9 km/h (3 Bft)
04.02.2013 15:30 9,1 C 7,3 C 78 % 0 lf 1009,1 hPa 0,0 l/m 0 min 0,0 UV-I 23 W/m 15,4 km/h (3 Bft)
04.02.2013 15:32 9,1 C 7,3 C 78 % 0 lf 1009,2 hPa 0,0 l/m 0 min 0,0 UV-I 23 W/m 0,0 km/h (0 Bft)
04.02.2013 15:34 9,1 C 7,3 C 78 % 0 lf 1009,3 hPa 0,0 l/m 0 min 0,0 UV-I 23 W/m 25,7 km/h (4 Bft)
04.02.2013 15:36 9,0 C 7,3 C 76 % 0 lf 1009,5 hPa 0,0 l/m 0 min 0,0 UV-I 19 W/m 12,9 km/h (3 Bft)
04.02.2013 15:38 8,9 C 7,3 C 76 % 0 lf 1009,5 hPa 0,0 l/m 0 min 0,0 UV-I 19 W/m 10,3 km/h (2 Bft)
04.02.2013 15:40 8,9 C 7,3 C 77 % 0 lf 1009,5 hPa 0,0 l/m 0 min 0,0 UV-I 19 W/m 12,9 km/h (3 Bft)
04.02.2013 15:42 8,9 C 7,3 C 77 % 1 lf 1009,6 hPa 0,0 l/m 0 min 0,0 UV-I 23 W/m 5,1 km/h (1 Bft)
04.02.2013 15:44 8,8 C 7,3 C 77 % 0 lf 1009,4 hPa 0,0 l/m 0 min 0,0 UV-I 23 W/m 10,3 km/h (2 Bft)
04.02.2013 15:46 8,8 C 6,8 C 77 % 4 lf 1009,5 hPa 0,0 l/m 0 min 0,0 UV-I 26 W/m 10,3 km/h (2 Bft)
04.02.2013 15:48 8,8 C 6,8 C 78 % 8 lf 1009,5 hPa 0,0 l/m 0 min 0,0 UV-I 26 W/m 15,4 km/h (3 Bft)
04.02.2013 15:50 8,8 C 6,2 C 78 % 15 lf 1009,5 hPa 0,0 l/m 0 min 0,0 UV-I 23 W/m 10,3 km/h (2 Bft)
04.02.2013 15:52 8,7 C 6,2 C 79 % 15 lf 1009,6 hPa 0,0 l/m 0 min 0,0 UV-I 19 W/m 10,3 km/h (2 Bft)
04.02.2013 15:54 8,7 C 5,7 C 80 % 15 lf 1009,5 hPa 0,0 l/m 0 min 0,0 UV-I 28 W/m 20,6 km/h (4 Bft)
04.02.2013 15:56 8,6 C 5,7 C 81 % 15 lf 1009,4 hPa 0,0 l/m 0 min 0,0 UV-I 30 W/m 12,9 km/h (3 Bft)
04.02.2013 15:58 8,5 C 5,7 C 82 % 15 lf 1009,5 hPa 0,0 l/m 0 min 0,0 UV-I 26 W/m 12,9 km/h (3 Bft)
04.02.2013 16:00 8,4 C 5,7 C 83 % 15 lf 1009,5 hPa 0,0 l/m 0 min 0,0 UV-I 26 W/m 12,9 km/h (3 Bft)
04.02.2013 16:02 8,4 C 5,7 C 83 % 15 lf 1009,5 hPa 0,0 l/m 0 min 0,0 UV-I 28 W/m 12,9 km/h (3 Bft)
04.02.2013 16:06 8,2 C 5,7 C 84 % 15 lf 1009,5 hPa 0,0 l/m 0 min 0,0 UV-I 28 W/m 20,6 km/h (4 Bft)
04.02.2013 16:08 8,1 C 5,7 C 85 % 15 lf 1009,6 hPa 0,0 l/m 0 min 0,0 UV-I 28 W/m 12,9 km/h (3 Bft)
04.02.2013 16:10 8,1 C 5,7 C 85 % 15 lf 1009,6 hPa 0,0 l/m 0 min 0,0 UV-I 28 W/m 10,3 km/h (2 Bft)
04.02.2013 16:12 8,0 C 5,7 C 86 % 15 lf 1009,5 hPa 0,0 l/m 0 min 0,0 UV-I 26 W/m 10,3 km/h (2 Bft)
04.02.2013 16:14 7,9 C 5,7 C 86 % 15 lf 1009,7 hPa 0,0 l/m 0 min 0,0 UV-I 28 W/m 15,4 km/h (3 Bft)
04.02.2013 16:16 7,9 C 5,7 C 87 % 15 lf 1009,6 hPa 0,0 l/m 0 min 0,0 UV-I 28 W/m 10,3 km/h (2 Bft)
04.02.2013 16:18 7,8 C 5,7 C 87 % 15 lf 1009,5 hPa 0,0 l/m 0 min 0,0 UV-I 32 W/m 12,9 km/h (3 Bft)
04.02.2013 16:20 7,8 C 5,7 C 87 % 15 lf 1009,5 hPa 0,0 l/m 0 min 0,0 UV-I 35 W/m 2,6 km/h (1 Bft)
04.02.2013 16:22 7,8 C 5,7 C 88 % 15 lf 1009,5 hPa 0,0 l/m 0 min 0,0 UV-I 35 W/m 7,7 km/h (2 Bft)
04.02.2013 16:24 7,7 C 5,7 C 88 % 15 lf 1009,5 hPa 0,0 l/m 0 min 0,0 UV-I 30 W/m 7,7 km/h (2 Bft)
04.02.2013 16:26 7,7 C 5,7 C 88 % 15 lf 1009,6 hPa 0,0 l/m 0 min 0,0 UV-I 21 W/m 0,0 km/h (0 Bft)
04.02.2013 16:28 7,7 C 5,7 C 88 % 15 lf 1009,6 hPa 0,0 l/m 0 min 0,0 UV-I 18 W/m 2,6 km/h (1 Bft)
04.02.2013 16:30 7,7 C 5,7 C 88 % 15 lf 1009,6 hPa 0,0 l/m 0 min 0,0 UV-I 16 W/m 2,6 km/h (1 Bft)
04.02.2013 16:32 7,7 C 5,7 C 89 % 15 lf 1009,5 hPa 0,0 l/m 0 min 0,0 UV-I 21 W/m 0,0 km/h (0 Bft)
04.02.2013 16:34 7,7 C 5,7 C 89 % 15 lf 1009,6 hPa 0,0 l/m 0 min 0,0 UV-I 26 W/m 2,6 km/h (1 Bft)
04.02.2013 16:36 7,7 C 5,7 C 89 % 15 lf 1009,6 hPa 0,0 l/m 0 min 0,0 UV-I 33 W/m 0,0 km/h (0 Bft)
04.02.2013 16:38 7,7 C 5,7 C 89 % 15 lf 1009,7 hPa 0,0 l/m 0 min 0,0 UV-I 35 W/m 5,1 km/h (1 Bft)
04.02.2013 16:40 7,6 C 5,7 C 90 % 15 lf 1009,6 hPa 0,0 l/m 0 min 0,0 UV-I 32 W/m 5,1 km/h (1 Bft)
04.02.2013 16:42 7,6 C 5,7 C 90 % 15 lf 1009,6 hPa 0,0 l/m 0 min 0,0 UV-I 28 W/m 7,7 km/h (2 Bft)
04.02.2013 16:44 7,6 C 5,7 C 90 % 14 lf 1009,6 hPa 0,0 l/m 0 min 0,0 UV-I 33 W/m 0,0 km/h (0 Bft)
04.02.2013 16:46 7,6 C 5,7 C 90 % 11 lf 1009,7 hPa 0,0 l/m 0 min 0,0 UV-I 42 W/m 10,3 km/h (2 Bft)
04.02.2013 16:48 7,6 C 5,7 C 90 % 2 lf 1009,6 hPa 0,0 l/m 0 min 0,0 UV-I 44 W/m 10,3 km/h (2 Bft)
04.02.2013 16:50 7,6 C 5,7 C 90 % 0 lf 1009,6 hPa 0,0 l/m 0 min 0,0 UV-I 32 W/m 5,1 km/h (1 Bft)
04.02.2013 16:52 7,6 C 5,7 C 90 % 0 lf 1009,6 hPa 0,0 l/m 0 min 0,0 UV-I 28 W/m 7,7 km/h (2 Bft)
04.02.2013 16:54 7,5 C 5,7 C 90 % 0 lf 1009,6 hPa 0,0 l/m 0 min 0,0 UV-I 26 W/m 5,1 km/h (1 Bft)
04.02.2013 16:56 7,5 C 5,7 C 90 % 0 lf 1009,6 hPa 0,0 l/m 0 min 0,0 UV-I 26 W/m 12,9 km/h (3 Bft)
04.02.2013 16:58 7,5 C 5,7 C 90 % 0 lf 1009,7 hPa 0,0 l/m 0 min 0,0 UV-I 26 W/m 7,7 km/h (2 Bft)
04.02.2013 17:00 7,4 C 5,7 C 90 % 0 lf 1009,7 hPa 0,0 l/m 0 min 0,0 UV-I 26 W/m 5,1 km/h (1 Bft)
04.02.2013 17:02 7,4 C 5,7 C 90 % 0 lf 1009,7 hPa 0,0 l/m 0 min 0,0 UV-I 25 W/m 2,6 km/h (1 Bft)
04.02.2013 17:06 7,4 C 5,7 C 89 % 0 lf 1009,8 hPa 0,0 l/m 2 min 0,0 UV-I 35 W/m 7,7 km/h (2 Bft)
04.02.2013 17:08 7,4 C 5,7 C 89 % 0 lf 1009,7 hPa 0,0 l/m 2 min 0,0 UV-I 35 W/m 7,7 km/h (2 Bft)
04.02.2013 17:10 7,3 C 5,7 C 89 % 0 lf 1009,8 hPa 0,0 l/m 2 min 0,0 UV-I 26 W/m 0,0 km/h (0 Bft)
04.02.2013 17:12 7,3 C 5,7 C 89 % 0 lf 1009,8 hPa 0,0 l/m 2 min 0,0 UV-I 19 W/m 5,1 km/h (1 Bft)
04.02.2013 17:14 7,3 C 5,7 C 88 % 0 lf 1009,8 hPa 0,0 l/m 0 min 0,0 UV-I 16 W/m 15,4 km/h (3 Bft)
04.02.2013 17:16 7,2 C 5,7 C 87 % 0 lf 1009,8 hPa 0,0 l/m 0 min 0,0 UV-I 12 W/m 15,4 km/h (3 Bft)
04.02.2013 17:18 7,2 C 5,7 C 86 % 0 lf 1009,8 hPa 0,0 l/m 0 min 0,0 UV-I 9 W/m 10,3 km/h (2 Bft)
04.02.2013 17:20 7,2 C 5,7 C 86 % 0 lf 1009,8 hPa 0,0 l/m 0 min 0,0 UV-I 9 W/m 12,9 km/h (3 Bft)
04.02.2013 17:22 7,2 C 5,7 C 85 % 0 lf 1009,8 hPa 0,0 l/m 0 min 0,0 UV-I 7 W/m 5,1 km/h (1 Bft)
04.02.2013 17:24 7,2 C 5,1 C 85 % 0 lf 1009,9 hPa 0,0 l/m 0 min 0,0 UV-I 7 W/m 2,6 km/h (1 Bft)
04.02.2013 17:26 7,2 C 5,1 C 84 % 0 lf 1010,0 hPa 0,0 l/m 0 min 0,0 UV-I 5 W/m 12,9 km/h (3 Bft)
04.02.2013 17:28 7,1 C 5,1 C 84 % 0 lf 1009,8 hPa 0,0 l/m 0 min 0,0 UV-I 0 W/m 10,3 km/h (2 Bft)
04.02.2013 17:30 7,1 C 5,7 C 83 % 0 lf 1009,9 hPa 0,0 l/m 0 min 0,0 UV-I 0 W/m 15,4 km/h (3 Bft)
04.02.2013 17:32 7,1 C 5,7 C 83 % 0 lf 1010,0 hPa 0,0 l/m 0 min 0,0 UV-I 0 W/m 18,0 km/h (3 Bft)
04.02.2013 17:34 7,1 C 5,1 C 82 % 0 lf 1010,1 hPa 0,0 l/m 0 min 0,0 UV-I 0 W/m 12,9 km/h (3 Bft)
04.02.2013 17:36 7,0 C 5,1 C 82 % 0 lf 1010,2 hPa 0,0 l/m 0 min 0,0 UV-I 0 W/m 5,1 km/h (1 Bft)
04.02.2013 17:38 7,0 C 5,1 C 82 % 0 lf 1010,3 hPa 0,0 l/m 0 min 0,0 UV-I 0 W/m 5,1 km/h (1 Bft)
04.02.2013 17:40 6,9 C 5,1 C 82 % 0 lf 1010,4 hPa 0,0 l/m 0 min 0,0 UV-I 0 W/m 7,7 km/h (2 Bft)
04.02.2013 17:42 6,9 C 5,1 C 82 % 0 lf 1010,4 hPa 0,0 l/m 0 min 0,0 UV-I 0 W/m 20,6 km/h (4 Bft)
04.02.2013 17:44 6,9 C 5,1 C 82 % 0 lf 1010,5 hPa 0,0 l/m 0 min 0,0 UV-I 0 W/m 12,9 km/h (3 Bft)
04.02.2013 17:46 6,9 C 5,1 C 82 % 0 lf 1010,5 hPa 0,0 l/m 0 min 0,0 UV-I 0 W/m 15,4 km/h (3 Bft)
04.02.2013 17:48 6,9 C 5,1 C 82 % 0 lf 1010,4 hPa 0,0 l/m 0 min 0,0 UV-I 0 W/m 5,1 km/h (1 Bft)
04.02.2013 17:50 6,8 C 5,1 C 81 % 0 lf 1010,5 hPa 0,0 l/m 0 min 0,0 UV-I 0 W/m 7,7 km/h (2 Bft)
04.02.2013 17:52 6,8 C 4,6 C 81 % 0 lf 1010,5 hPa 0,0 l/m 0 min 0,0 UV-I 0 W/m 5,1 km/h (1 Bft)
04.02.2013 17:54 6,8 C 4,6 C 81 % 0 lf 1010,6 hPa 0,0 l/m 0 min 0,0 UV-I 0 W/m 12,9 km/h (3 Bft)
04.02.2013 17:56 6,7 C 4,6 C 81 % 0 lf 1010,5 hPa 0,0 l/m 0 min 0,0 UV-I 0 W/m 0,0 km/h (0 Bft)
04.02.2013 17:58 6,7 C 4,6 C 81 % 0 lf 1010,6 hPa 0,0 l/m 0 min 0,0 UV-I 0 W/m 10,3 km/h (2 Bft)
04.02.2013 18:00 6,7 C 4,6 C 82 % 0 lf 1010,6 hPa 0,0 l/m 0 min 0,0 UV-I 0 W/m 5,1 km/h (1 Bft)
04.02.2013 18:02 6,7 C 4,6 C 82 % 0 lf 1010,7 hPa 0,0 l/m 0 min 0,0 UV-I 0 W/m 12,9 km/h (3 Bft)
04.02.2013 18:06 6,6 C 4,6 C 82 % 0 lf 1010,7 hPa 0,0 l/m 0 min 0,0 UV-I 0 W/m 7,7 km/h (2 Bft)
04.02.2013 18:08 6,6 C 4,6 C 82 % 0 lf 1010,7 hPa 0,0 l/m 0 min 0,0 UV-I 0 W/m 10,3 km/h (2 Bft)
04.02.2013 18:10 6,6 C 4,6 C 82 % 0 lf 1010,7 hPa 0,0 l/m 0 min 0,0 UV-I 0 W/m 10,3 km/h (2 Bft)
04.02.2013 18:12 6,5 C 4,6 C 82 % 0 lf 1010,7 hPa 0,0 l/m 0 min 0,0 UV-I 0 W/m 2,6 km/h (1 Bft)
04.02.2013 18:14 6,4 C 4,6 C 83 % 0 lf 1010,7 hPa 0,0 l/m 0 min 0,0 UV-I 0 W/m 10,3 km/h (2 Bft)
04.02.2013 18:16 6,4 C 4,6 C 83 % 0 lf 1010,8 hPa 0,0 l/m 0 min 0,0 UV-I 0 W/m 10,3 km/h (2 Bft)
04.02.2013 18:18 6,4 C 4,6 C 83 % 0 lf 1010,7 hPa 0,0 l/m 0 min 0,0 UV-I 0 W/m 12,9 km/h (3 Bft)
04.02.2013 18:20 6,3 C 4,6 C 83 % 0 lf 1010,7 hPa 0,0 l/m 0 min 0,0 UV-I 0 W/m 7,7 km/h (2 Bft)
04.02.2013 18:22 6,3 C 4,6 C 83 % 0 lf 1010,8 hPa 0,0 l/m 0 min 0,0 UV-I 0 W/m 5,1 km/h (1 Bft)
04.02.2013 18:24 6,3 C 4,6 C 83 % 0 lf 1010,7 hPa 0,0 l/m 0 min 0,0 UV-I 0 W/m 5,1 km/h (1 Bft)
04.02.2013 18:26 6,3 C 4,0 C 83 % 0 lf 1010,8 hPa 0,0 l/m 0 min 0,0 UV-I 0 W/m 2,6 km/h (1 Bft)
04.02.2013 18:28 6,2 C 4,6 C 83 % 0 lf 1010,8 hPa 0,0 l/m 0 min 0,0 UV-I 0 W/m 7,7 km/h (2 Bft)
04.02.2013 18:30 6,2 C 4,6 C 83 % 0 lf 1010,9 hPa 0,0 l/m 0 min 0,0 UV-I 0 W/m 5,1 km/h (1 Bft)
04.02.2013 18:32 6,2 C 4,0 C 84 % 0 lf 1010,8 hPa 0,0 l/m 0 min 0,0 UV-I 0 W/m 5,1 km/h (1 Bft)
04.02.2013 18:34 6,1 C 4,0 C 84 % 0 lf 1010,7 hPa 0,0 l/m 0 min 0,0 UV-I 0 W/m 5,1 km/h (1 Bft)
04.02.2013 18:36 6,1 C 4,0 C 84 % 0 lf 1010,7 hPa 0,0 l/m 0 min 0,0 UV-I 0 W/m 5,1 km/h (1 Bft)
04.02.2013 18:38 6,1 C 4,0 C 84 % 0 lf 1010,7 hPa 0,0 l/m 0 min 0,0 UV-I 0 W/m 5,1 km/h (1 Bft)
04.02.2013 18:40 6,1 C 4,0 C 84 % 0 lf 1010,6 hPa 0,0 l/m 0 min 0,0 UV-I 0 W/m 10,3 km/h (2 Bft)
04.02.2013 18:42 6,1 C 4,0 C 84 % 0 lf 1010,7 hPa 0,0 l/m 0 min 0,0 UV-I 0 W/m 5,1 km/h (1 Bft)
04.02.2013 18:44 6,0 C 4,0 C 84 % 0 lf 1010,7 hPa 0,0 l/m 0 min 0,0 UV-I 0 W/m 10,3 km/h (2 Bft)
04.02.2013 18:46 6,0 C 4,0 C 84 % 0 lf 1010,7 hPa 0,0 l/m 0 min 0,0 UV-I 0 W/m 10,3 km/h (2 Bft)
04.02.2013 18:48 5,9 C 4,0 C 84 % 0 lf 1010,8 hPa 0,0 l/m 0 min 0,0 UV-I 0 W/m 10,3 km/h (2 Bft)
04.02.2013 18:50 5,9 C 4,0 C 84 % 0 lf 1010,8 hPa 0,0 l/m 0 min 0,0 UV-I 0 W/m 10,3 km/h (2 Bft)
04.02.2013 18:52 5,9 C 4,0 C 84 % 0 lf 1010,8 hPa 0,0 l/m 0 min 0,0 UV-I 0 W/m 5,1 km/h (1 Bft)
04.02.2013 18:54 5,9 C 4,0 C 84 % 0 lf 1010,8 hPa 0,0 l/m 0 min 0,0 UV-I 0 W/m 7,7 km/h (2 Bft)
04.02.2013 18:56 5,9 C 4,0 C 84 % 0 lf 1010,8 hPa 0,0 l/m 0 min 0,0 UV-I 0 W/m 7,7 km/h (2 Bft)
04.02.2013 18:58 5,9 C 4,0 C 84 % 0 lf 1010,8 hPa 0,0 l/m 0 min 0,0 UV-I 0 W/m 0,0 km/h (0 Bft)
04.02.2013 19:00 5,9 C 4,0 C 84 % 0 lf 1010,7 hPa 0,0 l/m 0 min 0,0 UV-I 0 W/m 7,7 km/h (2 Bft)
04.02.2013 19:02 5,8 C 4,0 C 84 % 0 lf 1010,8 hPa 0,0 l/m 0 min 0,0 UV-I 0 W/m 0,0 km/h (0 Bft)
04.02.2013 19:06 5,8 C 4,0 C 84 % 0 lf 1010,6 hPa 0,0 l/m 0 min 0,0 UV-I 0 W/m 12,9 km/h (3 Bft)
04.02.2013 19:08 5,8 C 4,0 C 84 % 0 lf 1010,6 hPa 0,0 l/m 0 min 0,0 UV-I 0 W/m 7,7 km/h (2 Bft)
04.02.2013 19:10 5,8 C 4,0 C 84 % 0 lf 1010,6 hPa 0,0 l/m 0 min 0,0 UV-I 0 W/m 7,7 km/h (2 Bft)
04.02.2013 19:12 5,8 C 4,0 C 84 % 0 lf 1010,6 hPa 0,0 l/m 0 min 0,0 UV-I 0 W/m 5,1 km/h (1 Bft)
04.02.2013 19:14 5,7 C 4,0 C 84 % 0 lf 1010,6 hPa 0,0 l/m 0 min 0,0 UV-I 0 W/m 10,3 km/h (2 Bft)
04.02.2013 19:16 5,7 C 4,0 C 84 % 0 lf 1010,5 hPa 0,0 l/m 0 min 0,0 UV-I 0 W/m 10,3 km/h (2 Bft)
04.02.2013 19:18 5,7 C 4,0 C 84 % 0 lf 1010,5 hPa 0,0 l/m 0 min 0,0 UV-I 0 W/m 7,7 km/h (2 Bft)
04.02.2013 19:20 5,7 C 4,0 C 84 % 0 lf 1010,5 hPa 0,0 l/m 0 min 0,0 UV-I 0 W/m 0,0 km/h (0 Bft)
04.02.2013 19:22 5,7 C 4,0 C 84 % 0 lf 1010,5 hPa 0,0 l/m 0 min 0,0 UV-I 0 W/m 5,1 km/h (1 Bft)
04.02.2013 19:24 5,7 C 4,0 C 84 % 0 lf 1010,5 hPa 0,0 l/m 0 min 0,0 UV-I 0 W/m 0,0 km/h (0 Bft)
04.02.2013 19:26 5,7 C 4,0 C 84 % 0 lf 1010,5 hPa 0,0 l/m 0 min 0,0 UV-I 0 W/m 5,1 km/h (1 Bft)
04.02.2013 19:28 5,7 C 4,0 C 84 % 0 lf 1010,4 hPa 0,0 l/m 0 min 0,0 UV-I 0 W/m 7,7 km/h (2 Bft)
04.02.2013 19:30 5,7 C 4,0 C 84 % 0 lf 1010,3 hPa 0,0 l/m 0 min 0,0 UV-I 0 W/m 7,7 km/h (2 Bft)
04.02.2013 19:32 5,7 C 4,0 C 84 % 0 lf 1010,3 hPa 0,0 l/m 0 min 0,0 UV-I 0 W/m 5,1 km/h (1 Bft)
04.02.2013 19:34 5,7 C 4,0 C 84 % 0 lf 1010,3 hPa 0,0 l/m 0 min 0,0 UV-I 0 W/m 5,1 km/h (1 Bft)
04.02.2013 19:36 5,7 C 4,6 C 84 % 0 lf 1010,4 hPa 0,0 l/m 0 min 0,0 UV-I 0 W/m 5,1 km/h (1 Bft)
04.02.2013 19:38 5,7 C 4,6 C 85 % 0 lf 1010,5 hPa 0,0 l/m 0 min 0,0 UV-I 0 W/m 5,1 km/h (1 Bft)
04.02.2013 19:40 5,7 C 4,6 C 85 % 0 lf 1010,4 hPa 0,0 l/m 0 min 0,0 UV-I 0 W/m 12,9 km/h (3 Bft)
04.02.2013 19:42 5,7 C 4,6 C 85 % 0 lf 1010,4 hPa 0,0 l/m 0 min 0,0 UV-I 0 W/m 7,7 km/h (2 Bft)
04.02.2013 19:44 5,7 C 4,6 C 85 % 0 lf 1010,4 hPa 0,0 l/m 0 min 0,0 UV-I 0 W/m 10,3 km/h (2 Bft)
04.02.2013 19:46 5,7 C 4,6 C 85 % 0 lf 1010,4 hPa 0,0 l/m 0 min 0,0 UV-I 0 W/m 10,3 km/h (2 Bft)
04.02.2013 19:48 5,8 C 4,6 C 85 % 0 lf 1010,2 hPa 0,0 l/m 0 min 0,0 UV-I 0 W/m 0,0 km/h (0 Bft)
04.02.2013 19:50 5,8 C 4,6 C 85 % 0 lf 1010,3 hPa 0,0 l/m 0 min 0,0 UV-I 0 W/m 15,4 km/h (3 Bft)
04.02.2013 19:52 5,8 C 4,6 C 84 % 0 lf 1010,3 hPa 0,0 l/m 0 min 0,0 UV-I 0 W/m 10,3 km/h (2 Bft)
04.02.2013 19:54 5,8 C 4,6 C 84 % 0 lf 1010,3 hPa 0,0 l/m 0 min 0,0 UV-I 0 W/m 10,3 km/h (2 Bft)
04.02.2013 19:56 5,9 C 4,6 C 84 % 0 lf 1010,3 hPa 0,0 l/m 0 min 0,0 UV-I 0 W/m 20,6 km/h (4 Bft)
04.02.2013 19:58 5,9 C 4,6 C 84 % 0 lf 1010,2 hPa 0,0 l/m 0 min 0,0 UV-I 0 W/m 10,3 km/h (2 Bft)
04.02.2013 20:00 5,9 C 4,6 C 84 % 0 lf 1010,2 hPa 0,0 l/m 0 min 0,0 UV-I 0 W/m 7,7 km/h (2 Bft)
04.02.2013 20:02 6,0 C 4,6 C 84 % 0 lf 1010,3 hPa 0,0 l/m 0 min 0,0 UV-I 0 W/m 15,4 km/h (3 Bft)
04.02.2013 20:06 6,1 C 4,6 C 84 % 0 lf 1010,0 hPa 0,0 l/m 0 min 0,0 UV-I 0 W/m 7,7 km/h (2 Bft)
04.02.2013 20:08 6,1 C 4,6 C 84 % 0 lf 1010,0 hPa 0,0 l/m 0 min 0,0 UV-I 0 W/m 15,4 km/h (3 Bft)
04.02.2013 20:10 6,1 C 4,6 C 83 % 0 lf 1010,0 hPa 0,0 l/m 0 min 0,0 UV-I 0 W/m 7,7 km/h (2 Bft)
04.02.2013 20:12 6,1 C 4,6 C 83 % 0 lf 1009,9 hPa 0,0 l/m 0 min 0,0 UV-I 0 W/m 7,7 km/h (2 Bft)
04.02.2013 20:14 6,1 C 4,6 C 83 % 0 lf 1010,0 hPa 0,0 l/m 0 min 0,0 UV-I 0 W/m 12,9 km/h (3 Bft)
04.02.2013 20:16 6,1 C 4,6 C 83 % 0 lf 1010,1 hPa 0,0 l/m 0 min 0,0 UV-I 0 W/m 15,4 km/h (3 Bft)
04.02.2013 20:18 6,2 C 5,1 C 83 % 0 lf 1010,1 hPa 0,0 l/m 0 min 0,0 UV-I 0 W/m 10,3 km/h (2 Bft)
04.02.2013 20:20 6,2 C 5,1 C 83 % 0 lf 1010,0 hPa 0,0 l/m 0 min 0,0 UV-I 0 W/m 10,3 km/h (2 Bft)
04.02.2013 20:22 6,2 C 5,1 C 82 % 0 lf 1010,0 hPa 0,0 l/m 0 min 0,0 UV-I 0 W/m 12,9 km/h (3 Bft)
04.02.2013 20:24 6,2 C 5,1 C 82 % 0 lf 1010,0 hPa 0,0 l/m 0 min 0,0 UV-I 0 W/m 18,0 km/h (3 Bft)
04.02.2013 20:26 6,2 C 5,1 C 82 % 0 lf 1010,1 hPa 0,0 l/m 0 min 0,0 UV-I 0 W/m 10,3 km/h (2 Bft)
04.02.2013 20:28 6,2 C 5,1 C 82 % 0 lf 1010,1 hPa 0,0 l/m 0 min 0,0 UV-I 0 W/m 15,4 km/h (3 Bft)
04.02.2013 20:30 6,3 C 5,1 C 82 % 0 lf 1010,0 hPa 0,0 l/m 0 min 0,0 UV-I 0 W/m 20,6 km/h (4 Bft)
04.02.2013 20:32 6,3 C 5,1 C 82 % 0 lf 1009,9 hPa 0,0 l/m 0 min 0,0 UV-I 0 W/m 7,7 km/h (2 Bft)
04.02.2013 20:34 6,3 C 5,1 C 82 % 0 lf 1009,9 hPa 0,0 l/m 0 min 0,0 UV-I 0 W/m 12,9 km/h (3 Bft)
04.02.2013 20:36 6,3 C 5,1 C 82 % 0 lf 1009,9 hPa 0,0 l/m 0 min 0,0 UV-I 0 W/m 18,0 km/h (3 Bft)
04.02.2013 20:38 6,3 C 5,1 C 81 % 0 lf 1009,8 hPa 0,0 l/m 0 min 0,0 UV-I 0 W/m 15,4 km/h (3 Bft)
04.02.2013 20:40 6,3 C 5,1 C 81 % 0 lf 1009,8 hPa 0,0 l/m 0 min 0,0 UV-I 0 W/m 18,0 km/h (3 Bft)
04.02.2013 20:42 6,4 C 5,1 C 81 % 0 lf 1009,8 hPa 0,0 l/m 0 min 0,0 UV-I 0 W/m 10,3 km/h (2 Bft)
04.02.2013 20:44 6,4 C 5,1 C 81 % 0 lf 1009,8 hPa 0,0 l/m 0 min 0,0 UV-I 0 W/m 7,7 km/h (2 Bft)
04.02.2013 20:46 6,4 C 5,1 C 81 % 0 lf 1009,8 hPa 0,0 l/m 0 min 0,0 UV-I 0 W/m 18,0 km/h (3 Bft)
04.02.2013 20:48 6,4 C 5,1 C 80 % 0 lf 1009,9 hPa 0,0 l/m 0 min 0,0 UV-I 0 W/m 10,3 km/h (2 Bft)
04.02.2013 20:50 6,4 C 5,1 C 80 % 0 lf 1009,8 hPa 0,0 l/m 0 min 0,0 UV-I 0 W/m 15,4 km/h (3 Bft)
04.02.2013 20:52 6,5 C 5,1 C 80 % 0 lf 1009,8 hPa 0,0 l/m 0 min 0,0 UV-I 0 W/m 15,4 km/h (3 Bft)
04.02.2013 20:54 6,5 C 5,1 C 80 % 0 lf 1009,7 hPa 0,0 l/m 0 min 0,0 UV-I 0 W/m 12,9 km/h (3 Bft)
04.02.2013 20:56 6,6 C 5,1 C 80 % 0 lf 1009,7 hPa 0,0 l/m 0 min 0,0 UV-I 0 W/m 12,9 km/h (3 Bft)
04.02.2013 20:58 6,6 C 5,1 C 79 % 0 lf 1009,7 hPa 0,0 l/m 0 min 0,0 UV-I 0 W/m 15,4 km/h (3 Bft)
04.02.2013 21:00 6,6 C 5,1 C 79 % 0 lf 1009,8 hPa 0,0 l/m 0 min 0,0 UV-I 0 W/m 15,4 km/h (3 Bft)
04.02.2013 21:02 6,6 C 5,1 C 79 % 0 lf 1009,9 hPa 0,0 l/m 0 min 0,0 UV-I 0 W/m 5,1 km/h (1 Bft)
04.02.2013 21:04 6,6 C 5,1 C 79 % 0 lf 1009,7 hPa 0,0 l/m 0 min 0,0 UV-I 0 W/m 23,2 km/h (4 Bft)
04.02.2013 21:08 6,6 C 5,1 C 79 % 0 lf 1009,8 hPa 0,0 l/m 0 min 0,0 UV-I 0 W/m 15,4 km/h (3 Bft)
04.02.2013 21:10 6,6 C 5,1 C 79 % 0 lf 1009,7 hPa 0,0 l/m 0 min 0,0 UV-I 0 W/m 15,4 km/h (3 Bft)
04.02.2013 21:12 6,7 C 5,1 C 79 % 0 lf 1009,7 hPa 0,0 l/m 0 min 0,0 UV-I 0 W/m 12,9 km/h (3 Bft)
04.02.2013 21:14 6,7 C 5,1 C 79 % 0 lf 1009,7 hPa 0,0 l/m 0 min 0,0 UV-I 0 W/m 15,4 km/h (3 Bft)
04.02.2013 21:16 6,7 C 5,1 C 79 % 0 lf 1009,7 hPa 0,0 l/m 0 min 0,0 UV-I 0 W/m 12,9 km/h (3 Bft)
04.02.2013 21:18 6,7 C 5,1 C 79 % 0 lf 1009,7 hPa 0,0 l/m 0 min 0,0 UV-I 0 W/m 7,7 km/h (2 Bft)
04.02.2013 21:20 6,7 C 5,1 C 79 % 0 lf 1009,8 hPa 0,0 l/m 0 min 0,0 UV-I 0 W/m 10,3 km/h (2 Bft)
04.02.2013 21:22 6,7 C 5,1 C 79 % 0 lf 1009,6 hPa 0,0 l/m 0 min 0,0 UV-I 0 W/m 10,3 km/h (2 Bft)
04.02.2013 21:24 6,6 C 5,1 C 79 % 0 lf 1009,7 hPa 0,0 l/m 0 min 0,0 UV-I 0 W/m 12,9 km/h (3 Bft)
04.02.2013 21:26 6,7 C 5,1 C 79 % 0 lf 1009,7 hPa 0,0 l/m 0 min 0,0 UV-I 0 W/m 12,9 km/h (3 Bft)
04.02.2013 21:28 6,7 C 5,1 C 79 % 0 lf 1009,7 hPa 0,0 l/m 0 min 0,0 UV-I 0 W/m 12,9 km/h (3 Bft)
04.02.2013 21:30 6,7 C 5,1 C 79 % 0 lf 1009,7 hPa 0,0 l/m 0 min 0,0 UV-I 0 W/m 12,9 km/h (3 Bft)
04.02.2013 21:32 6,7 C 5,1 C 79 % 0 lf 1009,6 hPa 0,0 l/m 0 min 0,0 UV-I 0 W/m 20,6 km/h (4 Bft)
04.02.2013 21:34 6,7 C 5,1 C 79 % 0 lf 1009,7 hPa 0,0 l/m 0 min 0,0 UV-I 0 W/m 15,4 km/h (3 Bft)
04.02.2013 21:36 6,7 C 5,1 C 79 % 0 lf 1009,7 hPa 0,0 l/m 0 min 0,0 UV-I 0 W/m 10,3 km/h (2 Bft)
04.02.2013 21:38 6,7 C 5,1 C 79 % 0 lf 1009,6 hPa 0,0 l/m 0 min 0,0 UV-I 0 W/m 23,2 km/h (4 Bft)
04.02.2013 21:40 6,7 C 5,1 C 79 % 0 lf 1009,6 hPa 0,0 l/m 0 min 0,0 UV-I 0 W/m 20,6 km/h (4 Bft)
04.02.2013 21:42 6,7 C 5,1 C 79 % 0 lf 1009,6 hPa 0,0 l/m 0 min 0,0 UV-I 0 W/m 12,9 km/h (3 Bft)
04.02.2013 21:44 6,7 C 5,1 C 79 % 0 lf 1009,6 hPa 0,0 l/m 0 min 0,0 UV-I 0 W/m 25,7 km/h (4 Bft)
04.02.2013 21:46 6,7 C 5,1 C 79 % 0 lf 1009,7 hPa 0,0 l/m 0 min 0,0 UV-I 0 W/m 18,0 km/h (3 Bft)
04.02.2013 21:48 6,7 C 5,1 C 79 % 0 lf 1009,7 hPa 0,0 l/m 0 min 0,0 UV-I 0 W/m 20,6 km/h (4 Bft)
04.02.2013 21:50 6,7 C 5,1 C 79 % 0 lf 1009,7 hPa 0,0 l/m 0 min 0,0 UV-I 0 W/m 12,9 km/h (3 Bft)
04.02.2013 21:52 6,8 C 5,1 C 79 % 0 lf 1009,6 hPa 0,0 l/m 0 min 0,0 UV-I 0 W/m 15,4 km/h (3 Bft)
04.02.2013 21:54 6,7 C 5,1 C 79 % 0 lf 1009,5 hPa 0,0 l/m 0 min 0,0 UV-I 0 W/m 15,4 km/h (3 Bft)
04.02.2013 21:56 6,7 C 5,1 C 79 % 0 lf 1009,6 hPa 0,0 l/m 0 min 0,0 UV-I 0 W/m 18,0 km/h (3 Bft)
04.02.2013 21:58 6,7 C 5,1 C 80 % 0 lf 1009,4 hPa 0,0 l/m 0 min 0,0 UV-I 0 W/m 20,6 km/h (4 Bft)
04.02.2013 22:00 6,7 C 5,1 C 80 % 0 lf 1009,4 hPa 0,0 l/m 0 min 0,0 UV-I 0 W/m 23,2 km/h (4 Bft)
04.02.2013 22:02 6,7 C 5,1 C 81 % 0 lf 1009,5 hPa 0,0 l/m 0 min 0,0 UV-I 0 W/m 23,2 km/h (4 Bft)
04.02.2013 22:06 6,7 C 5,1 C 81 % 0 lf 1009,3 hPa 0,0 l/m 0 min 0,0 UV-I 0 W/m 18,0 km/h (3 Bft)
04.02.2013 22:08 6,7 C 5,1 C 82 % 0 lf 1009,4 hPa 0,0 l/m 0 min 0,0 UV-I 0 W/m 25,7 km/h (4 Bft)
04.02.2013 22:10 6,7 C 5,1 C 82 % 0 lf 1009,3 hPa 0,0 l/m 0 min 0,0 UV-I 0 W/m 23,2 km/h (4 Bft)
04.02.2013 22:12 6,6 C 5,1 C 82 % 0 lf 1009,3 hPa 0,0 l/m 0 min 0,0 UV-I 0 W/m 12,9 km/h (3 Bft)
04.02.2013 22:14 6,6 C 5,1 C 82 % 0 lf 1009,2 hPa 0,0 l/m 0 min 0,0 UV-I 0 W/m 12,9 km/h (3 Bft)
04.02.2013 22:16 6,6 C 5,1 C 82 % 0 lf 1009,3 hPa 0,0 l/m 0 min 0,0 UV-I 0 W/m 18,0 km/h (3 Bft)
04.02.2013 22:18 6,6 C 5,1 C 83 % 0 lf 1009,3 hPa 0,0 l/m 0 min 0,0 UV-I 0 W/m 12,9 km/h (3 Bft)
04.02.2013 22:20 6,5 C 5,1 C 83 % 0 lf 1009,2 hPa 0,0 l/m 0 min 0,0 UV-I 0 W/m 10,3 km/h (2 Bft)
04.02.2013 22:22 6,5 C 5,1 C 83 % 0 lf 1009,2 hPa 0,0 l/m 0 min 0,0 UV-I 0 W/m 15,4 km/h (3 Bft)
04.02.2013 22:24 6,4 C 4,6 C 84 % 0 lf 1009,2 hPa 0,0 l/m 0 min 0,0 UV-I 0 W/m 12,9 km/h (3 Bft)
04.02.2013 22:26 6,4 C 4,6 C 84 % 0 lf 1009,1 hPa 0,0 l/m 0 min 0,0 UV-I 0 W/m 5,1 km/h (1 Bft)
04.02.2013 22:28 6,3 C 4,6 C 84 % 0 lf 1009,1 hPa 0,0 l/m 0 min 0,0 UV-I 0 W/m 15,4 km/h (3 Bft)
04.02.2013 22:30 6,3 C 4,6 C 84 % 0 lf 1009,1 hPa 0,0 l/m 0 min 0,0 UV-I 0 W/m 10,3 km/h (2 Bft)
04.02.2013 22:32 6,3 C 4,6 C 84 % 0 lf 1009,0 hPa 0,0 l/m 0 min 0,0 UV-I 0 W/m 7,7 km/h (2 Bft)
04.02.2013 22:34 6,2 C 4,6 C 85 % 0 lf 1008,9 hPa 0,0 l/m 0 min 0,0 UV-I 0 W/m 12,9 km/h (3 Bft)
04.02.2013 22:36 6,2 C 4,6 C 85 % 0 lf 1008,9 hPa 0,0 l/m 0 min 0,0 UV-I 0 W/m 18,0 km/h (3 Bft)
04.02.2013 22:38 6,1 C 4,6 C 85 % 0 lf 1008,8 hPa 0,0 l/m 0 min 0,0 UV-I 0 W/m 15,4 km/h (3 Bft)
04.02.2013 22:40 6,1 C 4,6 C 85 % 0 lf 1009,0 hPa 0,0 l/m 0 min 0,0 UV-I 0 W/m 20,6 km/h (4 Bft)
04.02.2013 22:42 6,1 C 4,6 C 85 % 0 lf 1008,9 hPa 0,0 l/m 0 min 0,0 UV-I 0 W/m 12,9 km/h (3 Bft)
04.02.2013 22:44 6,0 C 4,6 C 85 % 0 lf 1008,9 hPa 0,0 l/m 0 min 0,0 UV-I 0 W/m 20,6 km/h (4 Bft)
04.02.2013 22:46 6,0 C 4,6 C 85 % 0 lf 1008,8 hPa 0,0 l/m 0 min 0,0 UV-I 0 W/m 12,9 km/h (3 Bft)
04.02.2013 22:48 6,0 C 4,6 C 86 % 0 lf 1008,8 hPa 0,0 l/m 0 min 0,0 UV-I 0 W/m 18,0 km/h (3 Bft)
04.02.2013 22:50 5,9 C 4,6 C 86 % 0 lf 1008,8 hPa 0,0 l/m 0 min 0,0 UV-I 0 W/m 23,2 km/h (4 Bft)
04.02.2013 22:52 5,9 C 4,6 C 86 % 0 lf 1008,8 hPa 0,0 l/m 0 min 0,0 UV-I 0 W/m 20,6 km/h (4 Bft)
04.02.2013 22:54 5,9 C 4,6 C 86 % 0 lf 1008,8 hPa 0,0 l/m 0 min 0,0 UV-I 0 W/m 12,9 km/h (3 Bft)
04.02.2013 22:56 5,9 C 4,6 C 86 % 0 lf 1008,8 hPa 0,0 l/m 0 min 0,0 UV-I 0 W/m 15,4 km/h (3 Bft)
04.02.2013 22:58 5,9 C 4,6 C 86 % 0 lf 1008,7 hPa 0,0 l/m 0 min 0,0 UV-I 0 W/m 7,7 km/h (2 Bft)
04.02.2013 23:00 5,9 C 4,6 C 86 % 0 lf 1008,7 hPa 0,0 l/m 0 min 0,0 UV-I 0 W/m 12,9 km/h (3 Bft)
04.02.2013 23:02 5,9 C 4,6 C 86 % 0 lf 1008,6 hPa 0,0 l/m 0 min 0,0 UV-I 0 W/m 10,3 km/h (2 Bft)
04.02.2013 23:06 5,9 C 4,6 C 87 % 0 lf 1008,7 hPa 0,0 l/m 0 min 0,0 UV-I 0 W/m 12,9 km/h (3 Bft)
04.02.2013 23:08 5,9 C 4,6 C 87 % 0 lf 1008,5 hPa 0,0 l/m 0 min 0,0 UV-I 0 W/m 15,4 km/h (3 Bft)
04.02.2013 23:10 5,9 C 4,6 C 87 % 0 lf 1008,6 hPa 0,0 l/m 0 min 0,0 UV-I 0 W/m 20,6 km/h (4 Bft)
04.02.2013 23:12 5,9 C 4,6 C 87 % 0 lf 1008,5 hPa 0,0 l/m 0 min 0,0 UV-I 0 W/m 25,7 km/h (4 Bft)
04.02.2013 23:14 5,9 C 4,6 C 87 % 0 lf 1008,4 hPa 0,0 l/m 0 min 0,0 UV-I 0 W/m 12,9 km/h (3 Bft)
04.02.2013 23:16 5,9 C 4,6 C 87 % 0 lf 1008,4 hPa 0,0 l/m 0 min 0,0 UV-I 0 W/m 18,0 km/h (3 Bft)
04.02.2013 23:18 5,9 C 4,6 C 87 % 0 lf 1008,4 hPa 0,0 l/m 0 min 0,0 UV-I 0 W/m 18,0 km/h (3 Bft)
04.02.2013 23:20 5,9 C 4,6 C 87 % 0 lf 1008,4 hPa 0,0 l/m 0 min 0,0 UV-I 0 W/m 10,3 km/h (2 Bft)
04.02.2013 23:22 5,9 C 4,6 C 87 % 0 lf 1008,3 hPa 0,0 l/m 0 min 0,0 UV-I 0 W/m 30,9 km/h (5 Bft)
04.02.2013 23:24 5,9 C 4,6 C 87 % 0 lf 1008,4 hPa 0,0 l/m 0 min 0,0 UV-I 0 W/m 25,7 km/h (4 Bft)
04.02.2013 23:26 6,0 C 4,6 C 87 % 0 lf 1008,3 hPa 0,0 l/m 0 min 0,0 UV-I 0 W/m 15,4 km/h (3 Bft)
04.02.2013 23:28 6,1 C 4,6 C 87 % 0 lf 1008,4 hPa 0,0 l/m 0 min 0,0 UV-I 0 W/m 15,4 km/h (3 Bft)
04.02.2013 23:30 6,1 C 4,6 C 87 % 0 lf 1008,4 hPa 0,0 l/m 0 min 0,0 UV-I 0 W/m 15,4 km/h (3 Bft)
04.02.2013 23:32 6,1 C 4,6 C 87 % 0 lf 1008,4 hPa 0,0 l/m 0 min 0,0 UV-I 0 W/m 15,4 km/h (3 Bft)
04.02.2013 23:34 6,1 C 5,1 C 87 % 0 lf 1008,3 hPa 0,0 l/m 0 min 0,0 UV-I 0 W/m 23,2 km/h (4 Bft)
04.02.2013 23:36 6,2 C 5,1 C 86 % 0 lf 1008,2 hPa 0,0 l/m 0 min 0,0 UV-I 0 W/m 20,6 km/h (4 Bft)
04.02.2013 23:38 6,2 C 5,1 C 86 % 0 lf 1008,3 hPa 0,0 l/m 0 min 0,0 UV-I 0 W/m 20,6 km/h (4 Bft)
04.02.2013 23:40 6,2 C 4,6 C 85 % 0 lf 1008,3 hPa 0,0 l/m 0 min 0,0 UV-I 0 W/m 25,7 km/h (4 Bft)
04.02.2013 23:42 6,2 C 4,6 C 85 % 0 lf 1008,3 hPa 0,0 l/m 0 min 0,0 UV-I 0 W/m 20,6 km/h (4 Bft)
04.02.2013 23:44 6,2 C 4,6 C 85 % 0 lf 1008,1 hPa 0,0 l/m 0 min 0,0 UV-I 0 W/m 20,6 km/h (4 Bft)
04.02.2013 23:46 6,2 C 4,6 C 85 % 0 lf 1008,2 hPa 0,0 l/m 0 min 0,0 UV-I 0 W/m 20,6 km/h (4 Bft)
04.02.2013 23:48 6,2 C 5,1 C 85 % 0 lf 1008,2 hPa 0,0 l/m 0 min 0,0 UV-I 0 W/m 28,3 km/h (4 Bft)
04.02.2013 23:50 6,2 C 4,6 C 85 % 0 lf 1008,1 hPa 0,0 l/m 0 min 0,0 UV-I 0 W/m 20,6 km/h (4 Bft)
04.02.2013 23:52 6,2 C 4,6 C 85 % 0 lf 1008,1 hPa 0,0 l/m 0 min 0,0 UV-I 0 W/m 20,6 km/h (4 Bft)
04.02.2013 23:54 6,2 C 4,6 C 85 % 0 lf 1008,1 hPa 0,0 l/m 0 min 0,0 UV-I 0 W/m 25,7 km/h (4 Bft)
04.02.2013 23:56 6,2 C 4,6 C 85 % 0 lf 1008,1 hPa 0,0 l/m 0 min 0,0 UV-I 0 W/m 18,0 km/h (3 Bft)
04.02.2013 23:58 6,2 C 4,6 C 85 % 0 lf 1008,2 hPa 0,0 l/m 0 min 0,0 UV-I 0 W/m 12,9 km/h (3 Bft)
_ Min-Zeit 00:00 00:00 15:08 13:42 06:08 - - - - 15:32
Minimum _ 5,2 C 4,0 C 72 % 0 lf 1007,5 hPa - - - - 0,0 km/h (0 Bft)
_ Max-Zeit 13:34 14:36 02:08 00:00 18:30 03:14 13:12 00:00 13:12 00:02
Maximum _ 9,3 C 7,9 C 100 % 15 lf 1010,9 hPa 0,2 l/m 2 min 0,0 UV-I 385 W/m 41,2 km/h
W-SW (6 Bft)
Durchschnitt _ 7,1 C 5,6 C 92 % 9 lf 1009,1 hPa #3,6 l/m #34 min. 0,0 UV-I 60 W/m 14,7 km/h (3 Bft)
© 2013 W. Hausmann